Observation data for Tahoka on 09/13/2017      Previous  Date  Next       Current Mesonet Observations  Soil Data  Daily Summary Page  Observations in Plain Language
KTAS 130500Z 08006KT 20/10 A2995 RMK A01 T01980101  RH  054%=      5-min Rain = 0
KTAS 130501Z 08006KT 20/10 A2995 RMK A01 T01980101  RH  054%=      5-min Rain = 0
KTAS 130502Z 09006KT 20/10 A2995 RMK A01 T01980101  RH  054%=      5-min Rain = 0
KTAS 130503Z 09006KT 20/10 A2995 RMK A01 T01980102  RH  054%=      5-min Rain = 0
KTAS 130504Z 08006KT 20/10 A2995 RMK A01 T01970102  RH  054%=      5-min Rain = 0
KTAS 130505Z 09006KT 20/10 A2995 RMK A01 T01970102  RH  054%=      5-min Rain = 0
KTAS 130506Z 08006KT 20/10 A2995 RMK A01 T01960102  RH  054%=      5-min Rain = 0
KTAS 130507Z 09005KT 20/10 A2995 RMK A01 T01960102  RH  054%=      5-min Rain = 0
KTAS 130508Z 09005KT 20/10 A2995 RMK A01 T01960102  RH  054%=      5-min Rain = 0
KTAS 130509Z 09005KT 20/10 A2995 RMK A01 T01960102  RH  055%=      5-min Rain = 0
KTAS 130510Z 09005KT 20/10 A2995 RMK A01 T01950102  RH  055%=      5-min Rain = 0
KTAS 130511Z 09005KT 20/10 A2995 RMK A01 T01950101  RH  055%=      5-min Rain = 0
KTAS 130512Z 10005KT 19/10 A2995 RMK A01 T01940101  RH  055%=      5-min Rain = 0
KTAS 130513Z 10005KT 19/10 A2995 RMK A01 T01940101  RH  055%=      5-min Rain = 0
KTAS 130514Z 10005KT 19/10 A2995 RMK A01 T01930101  RH  055%=      5-min Rain = 0
KTAS 130515Z 10005KT 19/10 A2995 RMK A01 T01930101  RH  055%=      5-min Rain = 0
KTAS 130516Z 09006KT 19/10 A2995 RMK A01 T01920101  RH  056%=      5-min Rain = 0
KTAS 130517Z 09006KT 19/10 A2995 RMK A01 T01910101  RH  056%=      5-min Rain = 0
KTAS 130518Z 09006KT 19/10 A2995 RMK A01 T01910101  RH  056%=      5-min Rain = 0
KTAS 130519Z 09006KT 19/10 A2995 RMK A01 T01900100  RH  056%=      5-min Rain = 0
KTAS 130520Z 09006KT 19/10 A2995 RMK A01 T01900100  RH  056%=      5-min Rain = 0
KTAS 130521Z 09006KT 19/10 A2995 RMK A01 T01900100  RH  056%=      5-min Rain = 0
KTAS 130522Z 09006KT 19/10 A2995 RMK A01 T01900100  RH  056%=      5-min Rain = 0
KTAS 130523Z 09006KT 19/10 A2995 RMK A01 T01890100  RH  056%=      5-min Rain = 0
KTAS 130524Z 09006KT 19/10 A2995 RMK A01 T01890100  RH  056%=      5-min Rain = 0
KTAS 130525Z 10006KT 19/10 A2995 RMK A01 T01890100  RH  056%=      5-min Rain = 0
KTAS 130526Z 10006KT 19/10 A2995 RMK A01 T01890100  RH  056%=      5-min Rain = 0
KTAS 130527Z 10005KT 19/10 A2995 RMK A01 T01890100  RH  056%=      5-min Rain = 0
KTAS 130528Z 10005KT 19/10 A2995 RMK A01 T01890100  RH  056%=      5-min Rain = 0
KTAS 130529Z 09005KT 19/10 A2995 RMK A01 T01900100  RH  056%=      5-min Rain = 0
KTAS 130530Z 10005KT 19/10 A2995 RMK A01 T01900100  RH  056%=      5-min Rain = 0
KTAS 130531Z 10005KT 19/10 A2995 RMK A01 T01890100  RH  056%=      5-min Rain = 0
KTAS 130532Z 10005KT 19/10 A2995 RMK A01 T01890100  RH  056%=      5-min Rain = 0
KTAS 130533Z 10005KT 19/10 A2995 RMK A01 T01890100  RH  056%=      5-min Rain = 0
KTAS 130534Z 10006KT 19/10 A2995 RMK A01 T01890099  RH  056%=      5-min Rain = 0
KTAS 130535Z 10006KT 19/10 A2995 RMK A01 T01890099  RH  056%=      5-min Rain = 0
KTAS 130536Z 10006KT 19/10 A2995 RMK A01 T01880099  RH  056%=      5-min Rain = 0
KTAS 130537Z 10006KT 19/10 A2995 RMK A01 T01880099  RH  056%=      5-min Rain = 0
KTAS 130538Z 10006KT 19/10 A2995 RMK A01 T01880099  RH  056%=      5-min Rain = 0
KTAS 130539Z 10006KT 19/10 A2995 RMK A01 T01880099  RH  056%=      5-min Rain = 0
KTAS 130540Z 10006KT 19/10 A2995 RMK A01 T01890099  RH  056%=      5-min Rain = 0
KTAS 130541Z 10006KT 19/10 A2995 RMK A01 T01890099  RH  056%=      5-min Rain = 0
KTAS 130542Z 10006KT 19/10 A2995 RMK A01 T01900099  RH  055%=      5-min Rain = 0
KTAS 130543Z 10005KT 19/10 A2995 RMK A01 T01890099  RH  056%=      5-min Rain = 0
KTAS 130544Z 10005KT 19/10 A2995 RMK A01 T01890099  RH  056%=      5-min Rain = 0
KTAS 130545Z 10005KT 19/10 A2995 RMK A01 T01890099  RH  056%=      5-min Rain = 0
KTAS 130546Z 10005KT 19/10 A2995 RMK A01 T01890099  RH  056%=      5-min Rain = 0
KTAS 130547Z 10005KT 19/10 A2995 RMK A01 T01880098  RH  056%=      5-min Rain = 0
KTAS 130548Z 10005KT 19/10 A2995 RMK A01 T01880098  RH  056%=      5-min Rain = 0
KTAS 130549Z 10005KT 19/10 A2995 RMK A01 T01870098  RH  056%=      5-min Rain = 0
KTAS 130550Z 11005KT 19/10 A2995 RMK A01 T01870098  RH  056%=      5-min Rain = 0
KTAS 130551Z 11005KT 19/10 A2995 RMK A01 T01870098  RH  056%=      5-min Rain = 0
KTAS 130552Z 11006KT 19/10 A2995 RMK A01 T01870098  RH  056%=      5-min Rain = 0
KTAS 130553Z 11006KT 19/10 A2995 RMK A01 T01860097  RH  056%=      5-min Rain = 0
KTAS 130554Z 11006KT 19/10 A2995 RMK A01 T01870097  RH  056%=      5-min Rain = 0
KTAS 130555Z 11006KT 19/10 A2995 RMK A01 T01870097  RH  056%=      5-min Rain = 0
KTAS 130556Z 11006KT 19/10 A2995 RMK A01 T01870097  RH  056%=      5-min Rain = 0
KTAS 130557Z 11006KT 19/10 A2995 RMK A01 T01870097  RH  056%=      5-min Rain = 0
KTAS 130558Z 11006KT 19/10 A2995 RMK A01 T01870098  RH  056%=      5-min Rain = 0
KTAS 130559Z 12006KT 19/10 A2995 RMK A01 T01870098  RH  056%=      5-min Rain = 0
KTAS 130600Z 12006KT 19/10 A2995 RMK A01 T01880098  RH  056%=      5-min Rain = 0
KTAS 130601Z 12006KT 19/10 A2995 RMK A01 T01880098  RH  056%=      5-min Rain = 0
KTAS 130602Z 12006KT 19/10 A2995 RMK A01 T01880098  RH  056%=      5-min Rain = 0
KTAS 130603Z 12006KT 19/10 A2995 RMK A01 T01880098  RH  056%=      5-min Rain = 0
KTAS 130604Z 12006KT 19/10 A2995 RMK A01 T01880098  RH  056%=      5-min Rain = 0
KTAS 130605Z 11006KT 19/10 A2995 RMK A01 T01880098  RH  056%=      5-min Rain = 0
KTAS 130606Z 12006KT 19/10 A2995 RMK A01 T01870098  RH  056%=      5-min Rain = 0
KTAS 130607Z 11006KT 19/10 A2995 RMK A01 T01870098  RH  056%=      5-min Rain = 0
KTAS 130608Z 11006KT 19/10 A2995 RMK A01 T01870098  RH  056%=      5-min Rain = 0
KTAS 130609Z 11006KT 19/10 A2995 RMK A01 T01870098  RH  056%=      5-min Rain = 0
KTAS 130610Z 11006KT 19/10 A2995 RMK A01 T01860098  RH  056%=      5-min Rain = 0
KTAS 130611Z 11006KT 19/10 A2995 RMK A01 T01860098  RH  056%=      5-min Rain = 0
KTAS 130612Z 11006KT 19/10 A2995 RMK A01 T01860098  RH  056%=      5-min Rain = 0
KTAS 130613Z 11006KT 19/10 A2994 RMK A01 T01860097  RH  056%=      5-min Rain = 0
KTAS 130614Z 11006KT 19/10 A2994 RMK A01 T01860098  RH  056%=      5-min Rain = 0
KTAS 130615Z 11006KT 19/10 A2994 RMK A01 T01860098  RH  056%=      5-min Rain = 0
KTAS 130616Z 11006KT 19/10 A2994 RMK A01 T01860098  RH  056%=      5-min Rain = 0
KTAS 130617Z 11006KT 19/10 A2994 RMK A01 T01860098  RH  056%=      5-min Rain = 0
KTAS 130618Z 11006KT 19/10 A2994 RMK A01 T01850098  RH  057%=      5-min Rain = 0
KTAS 130619Z 10006KT 18/10 A2994 RMK A01 T01840098  RH  057%=      5-min Rain = 0
KTAS 130620Z 10006KT 18/10 A2994 RMK A01 T01830097  RH  057%=      5-min Rain = 0
KTAS 130621Z 10006KT 18/10 A2994 RMK A01 T01830098  RH  057%=      5-min Rain = 0
KTAS 130622Z 10006KT 18/10 A2994 RMK A01 T01830098  RH  058%=      5-min Rain = 0
KTAS 130623Z 11006KT 18/10 A2994 RMK A01 T01820098  RH  058%=      5-min Rain = 0
KTAS 130624Z 11005KT 18/10 A2994 RMK A01 T01820098  RH  058%=      5-min Rain = 0
KTAS 130625Z 11006KT 18/10 A2994 RMK A01 T01820098  RH  058%=      5-min Rain = 0
KTAS 130626Z 10005KT 18/10 A2994 RMK A01 T01820098  RH  058%=      5-min Rain = 0
KTAS 130627Z 11005KT 18/10 A2994 RMK A01 T01810098  RH  058%=      5-min Rain = 0
KTAS 130628Z 10005KT 18/10 A2994 RMK A01 T01810098  RH  058%=      5-min Rain = 0
KTAS 130629Z 10005KT 18/10 A2994 RMK A01 T01810098  RH  058%=      5-min Rain = 0
KTAS 130630Z 10005KT 18/10 A2994 RMK A01 T01810098  RH  058%=      5-min Rain = 0
KTAS 130631Z 10005KT 18/10 A2994 RMK A01 T01810098  RH  058%=      5-min Rain = 0
KTAS 130632Z 10005KT 18/10 A2994 RMK A01 T01810098  RH  058%=      5-min Rain = 0
KTAS 130633Z 10005KT 18/10 A2994 RMK A01 T01810098  RH  058%=      5-min Rain = 0
KTAS 130634Z 10005KT 18/10 A2994 RMK A01 T01810098  RH  058%=      5-min Rain = 0
KTAS 130635Z 10005KT 18/10 A2994 RMK A01 T01810098  RH  058%=      5-min Rain = 0
KTAS 130636Z 10005KT 18/10 A2994 RMK A01 T01810097  RH  058%=      5-min Rain = 0
KTAS 130637Z 10005KT 18/10 A2994 RMK A01 T01810097  RH  058%=      5-min Rain = 0
KTAS 130638Z 10005KT 18/10 A2994 RMK A01 T01810097  RH  058%=      5-min Rain = 0
KTAS 130639Z 10005KT 18/10 A2994 RMK A01 T01810097  RH  058%=      5-min Rain = 0
KTAS 130640Z 11005KT 18/10 A2994 RMK A01 T01810097  RH  058%=      5-min Rain = 0
KTAS 130641Z 11005KT 18/10 A2994 RMK A01 T01800097  RH  058%=      5-min Rain = 0
KTAS 130642Z 11004KT 18/10 A2994 RMK A01 T01800097  RH  058%=      5-min Rain = 0
KTAS 130643Z 11004KT 18/10 A2994 RMK A01 T01790097  RH  059%=      5-min Rain = 0
KTAS 130644Z 11004KT 18/10 A2994 RMK A01 T01790097  RH  059%=      5-min Rain = 0
KTAS 130645Z 11004KT 18/10 A2994 RMK A01 T01780097  RH  059%=      5-min Rain = 0
KTAS 130646Z 11003KT 18/10 A2994 RMK A01 T01780097  RH  059%=      5-min Rain = 0
KTAS 130647Z 11003KT 18/10 A2994 RMK A01 T01780096  RH  059%=      5-min Rain = 0
KTAS 130648Z 11003KT 18/10 A2994 RMK A01 T01780096  RH  059%=      5-min Rain = 0
KTAS 130649Z 11003KT 18/10 A2994 RMK A01 T01780096  RH  059%=      5-min Rain = 0
KTAS 130650Z 10003KT 18/10 A2994 RMK A01 T01780096  RH  059%=      5-min Rain = 0
KTAS 130651Z 10003KT 18/10 A2994 RMK A01 T01770096  RH  059%=      5-min Rain = 0
KTAS 130652Z 10003KT 18/10 A2994 RMK A01 T01770097  RH  059%=      5-min Rain = 0
KTAS 130653Z 10004KT 18/10 A2994 RMK A01 T01770097  RH  059%=      5-min Rain = 0
KTAS 130654Z 10004KT 18/10 A2994 RMK A01 T01780097  RH  059%=      5-min Rain = 0
KTAS 130655Z 10004KT 18/10 A2994 RMK A01 T01780097  RH  059%=      5-min Rain = 0
KTAS 130656Z 09005KT 18/10 A2994 RMK A01 T01790097  RH  059%=      5-min Rain = 0
KTAS 130657Z 10005KT 18/10 A2994 RMK A01 T01800098  RH  058%=      5-min Rain = 0
KTAS 130658Z 09005KT 18/10 A2994 RMK A01 T01810097  RH  058%=      5-min Rain = 0
KTAS 130659Z 10005KT 18/10 A2994 RMK A01 T01810098  RH  058%=      5-min Rain = 0
KTAS 130700Z 10005KT 18/10 A2994 RMK A01 T01820098  RH  058%=      5-min Rain = 0
KTAS 130701Z 10004KT 18/10 A2994 RMK A01 T01820099  RH  058%=      5-min Rain = 0
KTAS 130702Z 10004KT 18/10 A2994 RMK A01 T01830099  RH  058%=      5-min Rain = 0
KTAS 130703Z 11004KT 18/10 A2994 RMK A01 T01830099  RH  058%=      5-min Rain = 0
KTAS 130704Z 11004KT 18/10 A2994 RMK A01 T01840099  RH  057%=      5-min Rain = 0
KTAS 130705Z 11003KT 18/10 A2994 RMK A01 T01840099  RH  057%=      5-min Rain = 0
KTAS 130706Z 12004KT 19/10 A2994 RMK A01 T01850100  RH  058%=      5-min Rain = 0
KTAS 130707Z 12003KT 19/10 A2994 RMK A01 T01850101  RH  058%=      5-min Rain = 0
KTAS 130708Z 12003KT 19/10 A2994 RMK A01 T01850101  RH  058%=      5-min Rain = 0
KTAS 130709Z 12003KT 19/10 A2994 RMK A01 T01850100  RH  058%=      5-min Rain = 0
KTAS 130710Z 12003KT 19/10 A2994 RMK A01 T01850100  RH  058%=      5-min Rain = 0
KTAS 130711Z 12003KT 19/10 A2994 RMK A01 T01850101  RH  058%=      5-min Rain = 0
KTAS 130712Z 11003KT 19/10 A2994 RMK A01 T01850100  RH  058%=      5-min Rain = 0
KTAS 130713Z 11003KT 19/10 A2994 RMK A01 T01850100  RH  057%=      5-min Rain = 0
KTAS 130714Z 11003KT 19/10 A2994 RMK A01 T01860101  RH  058%=      5-min Rain = 0
KTAS 130715Z 10003KT 19/10 A2994 RMK A01 T01860100  RH  057%=      5-min Rain = 0
KTAS 130716Z 10003KT 19/10 A2994 RMK A01 T01860100  RH  057%=      5-min Rain = 0
KTAS 130717Z 10003KT 19/10 A2994 RMK A01 T01860102  RH  058%=      5-min Rain = 0
KTAS 130718Z 10003KT 19/10 A2994 RMK A01 T01850103  RH  059%=      5-min Rain = 0
KTAS 130719Z 11003KT 19/10 A2994 RMK A01 T01850102  RH  058%=      5-min Rain = 0
KTAS 130720Z 11002KT 19/10 A2994 RMK A01 T01850103  RH  059%=      5-min Rain = 0
KTAS 130721Z 11002KT 19/10 A2994 RMK A01 T01850104  RH  059%=      5-min Rain = 0
KTAS 130722Z 12003KT 19/10 A2994 RMK A01 T01850103  RH  059%=      5-min Rain = 0
KTAS 130723Z 12003KT 19/10 A2994 RMK A01 T01850101  RH  058%=      5-min Rain = 0
KTAS 130724Z 12002KT 19/10 A2994 RMK A01 T01850103  RH  059%=      5-min Rain = 0
KTAS 130725Z 12002KT 19/10 A2994 RMK A01 T01850104  RH  059%=      5-min Rain = 0
KTAS 130726Z 12002KT 18/10 A2994 RMK A01 T01840100  RH  058%=      5-min Rain = 0
KTAS 130727Z 12002KT 19/10 A2994 RMK A01 T01850103  RH  059%=      5-min Rain = 0
KTAS 130728Z 11001KT 19/10 A2994 RMK A01 T01850103  RH  059%=      5-min Rain = 0
KTAS 130729Z 11000KT 18/10 A2994 RMK A01 T01840103  RH  059%=      5-min Rain = 0
KTAS 130730Z 00000KT 18/10 A2995 RMK A01 T01840102  RH  059%=      5-min Rain = 0
KTAS 130731Z 00000KT 18/10 A2995 RMK A01 T01830103  RH  060%=      5-min Rain = 0
KTAS 130732Z 00000KT 18/11 A2995 RMK A01 T01820106  RH  061%=      5-min Rain = 0
KTAS 130733Z 00000KT 18/11 A2995 RMK A01 T01810106  RH  061%=      5-min Rain = 0
KTAS 130734Z 11000KT 18/11 A2994 RMK A01 T01810105  RH  061%=      5-min Rain = 0
KTAS 130735Z 10000KT 18/11 A2994 RMK A01 T01810107  RH  062%=      5-min Rain = 0
KTAS 130736Z 07001KT 18/11 A2994 RMK A01 T01810107  RH  062%=      5-min Rain = 0
KTAS 130737Z 04001KT 18/11 A2994 RMK A01 T01810107  RH  062%=      5-min Rain = 0
KTAS 130738Z 10001KT 18/11 A2994 RMK A01 T01810108  RH  063%=      5-min Rain = 0
KTAS 130739Z 11002KT 18/11 A2994 RMK A01 T01810109  RH  063%=      5-min Rain = 0
KTAS 130740Z 11002KT 18/11 A2994 RMK A01 T01810109  RH  063%=      5-min Rain = 0
KTAS 130741Z 12001KT 18/11 A2994 RMK A01 T01810107  RH  062%=      5-min Rain = 0
KTAS 130742Z 12001KT 18/11 A2994 RMK A01 T01810108  RH  062%=      5-min Rain = 0
KTAS 130743Z 13001KT 18/11 A2994 RMK A01 T01800106  RH  062%=      5-min Rain = 0
KTAS 130744Z 14001KT 18/11 A2994 RMK A01 T01800105  RH  061%=      5-min Rain = 0
KTAS 130745Z 17001KT 18/11 A2995 RMK A01 T01800105  RH  062%=      5-min Rain = 0
KTAS 130746Z 19001KT 18/11 A2995 RMK A01 T01790106  RH  062%=      5-min Rain = 0
KTAS 130747Z 19001KT 18/11 A2995 RMK A01 T01780106  RH  063%=      5-min Rain = 0
KTAS 130748Z 16001KT 18/11 A2994 RMK A01 T01770106  RH  063%=      5-min Rain = 0
KTAS 130749Z 14001KT 18/11 A2994 RMK A01 T01770107  RH  064%=      5-min Rain = 0
KTAS 130750Z 13002KT 18/11 A2994 RMK A01 T01760107  RH  064%=      5-min Rain = 0
KTAS 130751Z 13002KT 18/11 A2994 RMK A01 T01760108  RH  064%=      5-min Rain = 0
KTAS 130752Z 12002KT 18/11 A2994 RMK A01 T01760108  RH  064%=      5-min Rain = 0
KTAS 130753Z 11002KT 18/11 A2994 RMK A01 T01760108  RH  064%=      5-min Rain = 0
KTAS 130754Z 11003KT 18/11 A2994 RMK A01 T01760107  RH  064%=      5-min Rain = 0
KTAS 130755Z 10003KT 18/10 A2994 RMK A01 T01770104  RH  062%=      5-min Rain = 0
KTAS 130756Z 09003KT 18/10 A2994 RMK A01 T01790103  RH  061%=      5-min Rain = 0
KTAS 130757Z 09004KT 18/10 A2994 RMK A01 T01790104  RH  061%=      5-min Rain = 0
KTAS 130758Z 09004KT 18/10 A2993 RMK A01 T01790104  RH  061%=      5-min Rain = 0
KTAS 130759Z 10004KT 18/10 A2993 RMK A01 T01780104  RH  062%=      5-min Rain = 0
KTAS 130800Z 10004KT 18/11 A2993 RMK A01 T01780105  RH  062%=      5-min Rain = 0
KTAS 130801Z 11004KT 18/11 A2993 RMK A01 T01770106  RH  063%=      5-min Rain = 0
KTAS 130802Z 11004KT 18/11 A2993 RMK A01 T01760106  RH  064%=      5-min Rain = 0
KTAS 130803Z 11004KT 18/11 A2993 RMK A01 T01750107  RH  064%=      5-min Rain = 0
KTAS 130804Z 11005KT 17/11 A2993 RMK A01 T01740107  RH  065%=      5-min Rain = 0
KTAS 130805Z 11005KT 17/11 A2993 RMK A01 T01740107  RH  065%=      5-min Rain = 0
KTAS 130806Z 11005KT 17/11 A2993 RMK A01 T01730106  RH  065%=      5-min Rain = 0
KTAS 130807Z 11005KT 17/11 A2993 RMK A01 T01730105  RH  064%=      5-min Rain = 0
KTAS 130808Z 10006KT 17/11 A2993 RMK A01 T01730105  RH  064%=      5-min Rain = 0
KTAS 130809Z 11006KT 17/11 A2993 RMK A01 T01730105  RH  064%=      5-min Rain = 0
KTAS 130810Z 11006KT 17/10 A2993 RMK A01 T01720104  RH  064%=      5-min Rain = 0
KTAS 130811Z 11007KT 17/10 A2993 RMK A01 T01710103  RH  064%=      5-min Rain = 0
KTAS 130812Z 11007KT 17/10 A2993 RMK A01 T01710102  RH  064%=      5-min Rain = 0
KTAS 130813Z 11007KT 17/10 A2993 RMK A01 T01710100  RH  063%=      5-min Rain = 0
KTAS 130814Z 11007KT 17/10 A2993 RMK A01 T01710100  RH  063%=      5-min Rain = 0
KTAS 130815Z 11007KT 17/10 A2993 RMK A01 T01720099  RH  062%=      5-min Rain = 0
KTAS 130816Z 11006KT 17/10 A2993 RMK A01 T01730098  RH  061%=      5-min Rain = 0
KTAS 130817Z 11006KT 17/10 A2993 RMK A01 T01740097  RH  061%=      5-min Rain = 0
KTAS 130818Z 11006KT 18/10 A2993 RMK A01 T01750097  RH  060%=      5-min Rain = 0
KTAS 130819Z 11006KT 18/10 A2993 RMK A01 T01750097  RH  060%=      5-min Rain = 0
KTAS 130820Z 11006KT 18/10 A2993 RMK A01 T01760096  RH  060%=      5-min Rain = 0
KTAS 130821Z 11007KT 18/10 A2993 RMK A01 T01760096  RH  059%=      5-min Rain = 0
KTAS 130822Z 11007KT 18/10 A2993 RMK A01 T01760096  RH  059%=      5-min Rain = 0
KTAS 130823Z 11006KT 18/10 A2993 RMK A01 T01760096  RH  059%=      5-min Rain = 0
KTAS 130824Z 11006KT 18/10 A2993 RMK A01 T01760096  RH  059%=      5-min Rain = 0
KTAS 130825Z 11006KT 18/10 A2993 RMK A01 T01760095  RH  059%=      5-min Rain = 0
KTAS 130826Z 11006KT 18/10 A2993 RMK A01 T01760095  RH  059%=      5-min Rain = 0
KTAS 130827Z 11006KT 18/10 A2992 RMK A01 T01760095  RH  059%=      5-min Rain = 0
KTAS 130828Z 10006KT 18/10 A2992 RMK A01 T01750095  RH  059%=      5-min Rain = 0
KTAS 130829Z 10006KT 18/10 A2992 RMK A01 T01750095  RH  059%=      5-min Rain = 0
KTAS 130830Z 10006KT 18/10 A2992 RMK A01 T01750095  RH  059%=      5-min Rain = 0
KTAS 130831Z 11006KT 18/10 A2992 RMK A01 T01750095  RH  059%=      5-min Rain = 0
KTAS 130832Z 11006KT 17/10 A2992 RMK A01 T01740095  RH  059%=      5-min Rain = 0
KTAS 130833Z 11006KT 17/09 A2992 RMK A01 T01740094  RH  059%=      5-min Rain = 0
KTAS 130834Z 11006KT 17/09 A2992 RMK A01 T01740094  RH  059%=      5-min Rain = 0
KTAS 130835Z 11006KT 17/09 A2992 RMK A01 T01740094  RH  059%=      5-min Rain = 0
KTAS 130836Z 11006KT 17/09 A2992 RMK A01 T01740094  RH  059%=      5-min Rain = 0
KTAS 130837Z 11006KT 17/09 A2992 RMK A01 T01730094  RH  060%=      5-min Rain = 0
KTAS 130838Z 11006KT 17/10 A2992 RMK A01 T01730095  RH  060%=      5-min Rain = 0
KTAS 130839Z 11007KT 17/10 A2992 RMK A01 T01720095  RH  060%=      5-min Rain = 0
KTAS 130840Z 11007KT 17/10 A2992 RMK A01 T01720095  RH  060%=      5-min Rain = 0
KTAS 130841Z 11007KT 17/10 A2992 RMK A01 T01710095  RH  060%=      5-min Rain = 0
KTAS 130842Z 11007KT 17/10 A2991 RMK A01 T01710095  RH  061%=      5-min Rain = 0
KTAS 130843Z 11006KT 17/10 A2991 RMK A01 T01710095  RH  061%=      5-min Rain = 0
KTAS 130844Z 11007KT 17/10 A2991 RMK A01 T01700095  RH  061%=      5-min Rain = 0
KTAS 130845Z 11007KT 17/10 A2991 RMK A01 T01700095  RH  061%=      5-min Rain = 0
KTAS 130846Z 11007KT 17/10 A2991 RMK A01 T01700095  RH  061%=      5-min Rain = 0
KTAS 130847Z 11006KT 17/10 A2991 RMK A01 T01710095  RH  061%=      5-min Rain = 0
KTAS 130848Z 11007KT 17/10 A2991 RMK A01 T01700095  RH  061%=      5-min Rain = 0
KTAS 130849Z 11006KT 17/10 A2991 RMK A01 T01700095  RH  061%=      5-min Rain = 0
KTAS 130850Z 11006KT 17/09 A2991 RMK A01 T01700094  RH  061%=      5-min Rain = 0
KTAS 130851Z 11006KT 17/09 A2991 RMK A01 T01700094  RH  061%=      5-min Rain = 0
KTAS 130852Z 11006KT 17/09 A2991 RMK A01 T01700094  RH  061%=      5-min Rain = 0
KTAS 130853Z 10006KT 17/09 A2991 RMK A01 T01700094  RH  061%=      5-min Rain = 0
KTAS 130854Z 10006KT 17/09 A2991 RMK A01 T01700094  RH  061%=      5-min Rain = 0
KTAS 130855Z 10006KT 17/09 A2991 RMK A01 T01700094  RH  061%=      5-min Rain = 0
KTAS 130856Z 10007KT 17/10 A2991 RMK A01 T01700095  RH  061%=      5-min Rain = 0
KTAS 130857Z 09006KT 17/10 A2991 RMK A01 T01710095  RH  061%=      5-min Rain = 0
KTAS 130858Z 09006KT 17/10 A2991 RMK A01 T01710095  RH  061%=      5-min Rain = 0
KTAS 130859Z 09006KT 17/10 A2991 RMK A01 T01700095  RH  061%=      5-min Rain = 0
KTAS 130900Z 09006KT 17/09 A2991 RMK A01 T01690094  RH  061%=      5-min Rain = 0
KTAS 130901Z 09006KT 17/10 A2991 RMK A01 T01690095  RH  062%=      5-min Rain = 0
KTAS 130902Z 09006KT 17/09 A2991 RMK A01 T01680094  RH  062%=      5-min Rain = 0
KTAS 130903Z 09006KT 17/09 A2991 RMK A01 T01670094  RH  062%=      5-min Rain = 0
KTAS 130904Z 09006KT 17/09 A2991 RMK A01 T01670094  RH  062%=      5-min Rain = 0
KTAS 130905Z 09005KT 17/09 A2991 RMK A01 T01660094  RH  062%=      5-min Rain = 0
KTAS 130906Z 09005KT 17/09 A2991 RMK A01 T01660094  RH  062%=      5-min Rain = 0
KTAS 130907Z 10004KT 17/09 A2991 RMK A01 T01660094  RH  062%=      5-min Rain = 0
KTAS 130908Z 10004KT 17/09 A2991 RMK A01 T01650094  RH  063%=      5-min Rain = 0
KTAS 130909Z 10003KT 17/09 A2991 RMK A01 T01650094  RH  063%=      5-min Rain = 0
KTAS 130910Z 10003KT 17/09 A2991 RMK A01 T01650094  RH  063%=      5-min Rain = 0
KTAS 130911Z 10003KT 17/09 A2991 RMK A01 T01650094  RH  063%=      5-min Rain = 0
KTAS 130912Z 11003KT 17/09 A2991 RMK A01 T01650094  RH  063%=      5-min Rain = 0
KTAS 130913Z 11003KT 16/09 A2991 RMK A01 T01640094  RH  063%=      5-min Rain = 0
KTAS 130914Z 11003KT 16/09 A2991 RMK A01 T01640094  RH  063%=      5-min Rain = 0
KTAS 130915Z 11004KT 16/09 A2991 RMK A01 T01640094  RH  063%=      5-min Rain = 0
KTAS 130916Z 11004KT 16/09 A2991 RMK A01 T01640094  RH  063%=      5-min Rain = 0
KTAS 130917Z 11004KT 16/09 A2991 RMK A01 T01640094  RH  063%=      5-min Rain = 0
KTAS 130918Z 11004KT 17/09 A2991 RMK A01 T01650094  RH  063%=      5-min Rain = 0
KTAS 130919Z 11004KT 17/09 A2991 RMK A01 T01650094  RH  063%=      5-min Rain = 0
KTAS 130920Z 11004KT 16/09 A2991 RMK A01 T01640094  RH  063%=      5-min Rain = 0
KTAS 130921Z 11004KT 16/09 A2991 RMK A01 T01640094  RH  063%=      5-min Rain = 0
KTAS 130922Z 10004KT 16/09 A2991 RMK A01 T01640094  RH  063%=      5-min Rain = 0
KTAS 130923Z 10005KT 16/09 A2991 RMK A01 T01630094  RH  063%=      5-min Rain = 0
KTAS 130924Z 10004KT 16/09 A2991 RMK A01 T01630093  RH  063%=      5-min Rain = 0
KTAS 130925Z 10004KT 16/09 A2991 RMK A01 T01630093  RH  063%=      5-min Rain = 0
KTAS 130926Z 09004KT 16/09 A2991 RMK A01 T01640094  RH  063%=      5-min Rain = 0
KTAS 130927Z 09004KT 16/09 A2991 RMK A01 T01630094  RH  063%=      5-min Rain = 0
KTAS 130928Z 09004KT 16/09 A2991 RMK A01 T01630094  RH  064%=      5-min Rain = 0
KTAS 130929Z 09004KT 16/09 A2991 RMK A01 T01620093  RH  064%=      5-min Rain = 0
KTAS 130930Z 09004KT 16/09 A2991 RMK A01 T01610093  RH  064%=      5-min Rain = 0
KTAS 130931Z 09005KT 16/09 A2991 RMK A01 T01610093  RH  064%=      5-min Rain = 0
KTAS 130932Z 08005KT 16/09 A2991 RMK A01 T01610093  RH  064%=      5-min Rain = 0
KTAS 130933Z 08005KT 16/09 A2991 RMK A01 T01610094  RH  064%=      5-min Rain = 0
KTAS 130934Z 08005KT 16/09 A2991 RMK A01 T01610094  RH  064%=      5-min Rain = 0
KTAS 130935Z 08005KT 16/09 A2991 RMK A01 T01620094  RH  064%=      5-min Rain = 0
KTAS 130936Z 09005KT 16/09 A299 RMK A01 T01620094  RH  064%=      5-min Rain = 0
KTAS 130937Z 09006KT 16/10 A299 RMK A01 T01620095  RH  064%=      5-min Rain = 0
KTAS 130938Z 09006KT 16/10 A299 RMK A01 T01610095  RH  065%=      5-min Rain = 0
KTAS 130939Z 09006KT 16/10 A299 RMK A01 T01610096  RH  065%=      5-min Rain = 0
KTAS 130940Z 10006KT 16/10 A299 RMK A01 T01610096  RH  065%=      5-min Rain = 0
KTAS 130941Z 09006KT 16/10 A299 RMK A01 T01610096  RH  065%=      5-min Rain = 0
KTAS 130942Z 09005KT 16/10 A299 RMK A01 T01610096  RH  065%=      5-min Rain = 0
KTAS 130943Z 09005KT 16/10 A299 RMK A01 T01610096  RH  065%=      5-min Rain = 0
KTAS 130944Z 09005KT 16/10 A299 RMK A01 T01620096  RH  065%=      5-min Rain = 0
KTAS 130945Z 09005KT 16/10 A299 RMK A01 T01620097  RH  065%=      5-min Rain = 0
KTAS 130946Z 10005KT 16/10 A299 RMK A01 T01630096  RH  065%=      5-min Rain = 0
KTAS 130947Z 10005KT 16/10 A299 RMK A01 T01640096  RH  064%=      5-min Rain = 0
KTAS 130948Z 10006KT 17/10 A299 RMK A01 T01650097  RH  064%=      5-min Rain = 0
KTAS 130949Z 10006KT 17/10 A299 RMK A01 T01650097  RH  064%=      5-min Rain = 0
KTAS 130950Z 10006KT 17/10 A299 RMK A01 T01660097  RH  064%=      5-min Rain = 0
KTAS 130951Z 09006KT 17/10 A299 RMK A01 T01670096  RH  063%=      5-min Rain = 0
KTAS 130952Z 09006KT 17/10 A299 RMK A01 T01680097  RH  063%=      5-min Rain = 0
KTAS 130953Z 10006KT 17/10 A299 RMK A01 T01680096  RH  062%=      5-min Rain = 0
KTAS 130954Z 10006KT 17/10 A299 RMK A01 T01700096  RH  062%=      5-min Rain = 0
KTAS 130955Z 10006KT 17/10 A299 RMK A01 T01710096  RH  061%=      5-min Rain = 0
KTAS 130956Z 10006KT 17/10 A299 RMK A01 T01720096  RH  061%=      5-min Rain = 0
KTAS 130957Z 10007KT 17/10 A299 RMK A01 T01730095  RH  060%=      5-min Rain = 0
KTAS 130958Z 10007KT 17/10 A299 RMK A01 T01740095  RH  060%=      5-min Rain = 0
KTAS 130959Z 10007KT 18/09 A299 RMK A01 T01750094  RH  059%=      5-min Rain = 0
KTAS 131000Z 10006KT 18/09 A299 RMK A01 T01760094  RH  059%=      5-min Rain = 0
KTAS 131001Z 10007KT 18/09 A299 RMK A01 T01770094  RH  058%=      5-min Rain = 0
KTAS 131002Z 10006KT 18/09 A299 RMK A01 T01770094  RH  058%=      5-min Rain = 0
KTAS 131003Z 10006KT 18/09 A299 RMK A01 T01780094  RH  058%=      5-min Rain = 0
KTAS 131004Z 10006KT 18/09 A299 RMK A01 T01780094  RH  058%=      5-min Rain = 0
KTAS 131005Z 10006KT 18/09 A299 RMK A01 T01790093  RH  057%=      5-min Rain = 0
KTAS 131006Z 10006KT 18/09 A299 RMK A01 T01790093  RH  057%=      5-min Rain = 0
KTAS 131007Z 11005KT 18/09 A299 RMK A01 T01800093  RH  057%=      5-min Rain = 0
KTAS 131008Z 11005KT 18/09 A299 RMK A01 T01800093  RH  057%=      5-min Rain = 0
KTAS 131009Z 11005KT 18/09 A299 RMK A01 T01800093  RH  056%=      5-min Rain = 0
KTAS 131010Z 11005KT 18/09 A299 RMK A01 T01810092  RH  056%=      5-min Rain = 0
KTAS 131011Z 11006KT 18/09 A299 RMK A01 T01810092  RH  056%=      5-min Rain = 0
KTAS 131012Z 11006KT 18/09 A299 RMK A01 T01820092  RH  056%=      5-min Rain = 0
KTAS 131013Z 11006KT 18/09 A299 RMK A01 T01820092  RH  056%=      5-min Rain = 0
KTAS 131014Z 11005KT 18/09 A299 RMK A01 T01820092  RH  056%=      5-min Rain = 0
KTAS 131015Z 11005KT 18/09 A299 RMK A01 T01820092  RH  056%=      5-min Rain = 0
KTAS 131016Z 11005KT 18/09 A299 RMK A01 T01820092  RH  056%=      5-min Rain = 0
KTAS 131017Z 11006KT 18/09 A299 RMK A01 T01820092  RH  056%=      5-min Rain = 0
KTAS 131018Z 11006KT 18/09 A299 RMK A01 T01820092  RH  056%=      5-min Rain = 0
KTAS 131019Z 11006KT 18/09 A299 RMK A01 T01820092  RH  056%=      5-min Rain = 0
KTAS 131020Z 11006KT 18/09 A299 RMK A01 T01820092  RH  056%=      5-min Rain = 0
KTAS 131021Z 11006KT 18/09 A299 RMK A01 T01810092  RH  056%=      5-min Rain = 0
KTAS 131022Z 11006KT 18/09 A299 RMK A01 T01810092  RH  056%=      5-min Rain = 0
KTAS 131023Z 11005KT 18/09 A299 RMK A01 T01810092  RH  056%=      5-min Rain = 0
KTAS 131024Z 11005KT 18/09 A299 RMK A01 T01810092  RH  056%=      5-min Rain = 0
KTAS 131025Z 11005KT 18/09 A299 RMK A01 T01800093  RH  056%=      5-min Rain = 0
KTAS 131026Z 11005KT 18/09 A299 RMK A01 T01800092  RH  057%=      5-min Rain = 0
KTAS 131027Z 11005KT 18/09 A299 RMK A01 T01790093  RH  057%=      5-min Rain = 0
KTAS 131028Z 11006KT 18/09 A299 RMK A01 T01790093  RH  057%=      5-min Rain = 0
KTAS 131029Z 11006KT 18/09 A299 RMK A01 T01780093  RH  057%=      5-min Rain = 0
KTAS 131030Z 11006KT 18/09 A299 RMK A01 T01780093  RH  057%=      5-min Rain = 0
KTAS 131031Z 11006KT 18/09 A299 RMK A01 T01770093  RH  057%=      5-min Rain = 0
KTAS 131032Z 11006KT 18/09 A299 RMK A01 T01770092  RH  058%=      5-min Rain = 0
KTAS 131033Z 11006KT 18/09 A299 RMK A01 T01770092  RH  058%=      5-min Rain = 0
KTAS 131034Z 11005KT 18/09 A299 RMK A01 T01760093  RH  058%=      5-min Rain = 0
KTAS 131035Z 11005KT 18/09 A299 RMK A01 T01760092  RH  058%=      5-min Rain = 0
KTAS 131036Z 11005KT 18/09 A299 RMK A01 T01760093  RH  058%=      5-min Rain = 0
KTAS 131037Z 11005KT 18/09 A299 RMK A01 T01750093  RH  059%=      5-min Rain = 0
KTAS 131038Z 10005KT 17/09 A299 RMK A01 T01740093  RH  059%=      5-min Rain = 0
KTAS 131039Z 10004KT 17/09 A299 RMK A01 T01740093  RH  059%=      5-min Rain = 0
KTAS 131040Z 10004KT 17/09 A2991 RMK A01 T01730093  RH  059%=      5-min Rain = 0
KTAS 131041Z 10004KT 17/09 A2991 RMK A01 T01730093  RH  059%=      5-min Rain = 0
KTAS 131042Z 09004KT 17/09 A2991 RMK A01 T01730093  RH  059%=      5-min Rain = 0
KTAS 131043Z 09004KT 17/09 A2991 RMK A01 T01730093  RH  059%=      5-min Rain = 0
KTAS 131044Z 09004KT 17/09 A2991 RMK A01 T01730093  RH  059%=      5-min Rain = 0
KTAS 131045Z 08004KT 17/09 A2991 RMK A01 T01730093  RH  059%=      5-min Rain = 0
KTAS 131046Z 08004KT 17/09 A2991 RMK A01 T01720093  RH  060%=      5-min Rain = 0
KTAS 131047Z 08005KT 17/09 A2991 RMK A01 T01710093  RH  060%=      5-min Rain = 0
KTAS 131048Z 08005KT 17/09 A2991 RMK A01 T01700093  RH  060%=      5-min Rain = 0
KTAS 131049Z 08005KT 17/09 A2991 RMK A01 T01700093  RH  060%=      5-min Rain = 0
KTAS 131050Z 07006KT 17/09 A2991 RMK A01 T01690093  RH  061%=      5-min Rain = 0
KTAS 131051Z 07005KT 17/09 A2991 RMK A01 T01690093  RH  061%=      5-min Rain = 0
KTAS 131052Z 08005KT 17/09 A2991 RMK A01 T01690093  RH  061%=      5-min Rain = 0
KTAS 131053Z 08004KT 17/09 A2991 RMK A01 T01690093  RH  061%=      5-min Rain = 0
KTAS 131054Z 08004KT 17/09 A2991 RMK A01 T01690093  RH  061%=      5-min Rain = 0
KTAS 131055Z 08004KT 17/09 A2991 RMK A01 T01690092  RH  061%=      5-min Rain = 0
KTAS 131056Z 08003KT 17/09 A2991 RMK A01 T01690093  RH  061%=      5-min Rain = 0
KTAS 131057Z 08004KT 17/09 A2991 RMK A01 T01690092  RH  061%=      5-min Rain = 0
KTAS 131058Z 09003KT 17/09 A2991 RMK A01 T01690092  RH  061%=      5-min Rain = 0
KTAS 131059Z 08004KT 17/09 A2991 RMK A01 T01690092  RH  061%=      5-min Rain = 0
KTAS 131100Z 09004KT 17/09 A2991 RMK A01 T01690092  RH  061%=      5-min Rain = 0
KTAS 131101Z 09004KT 17/09 A2991 RMK A01 T01680092  RH  061%=      5-min Rain = 0
KTAS 131102Z 09004KT 17/09 A2991 RMK A01 T01680092  RH  061%=      5-min Rain = 0
KTAS 131103Z 09004KT 17/09 A2991 RMK A01 T01680092  RH  061%=      5-min Rain = 0
KTAS 131104Z 08005KT 17/09 A2991 RMK A01 T01680092  RH  061%=      5-min Rain = 0
KTAS 131105Z 08005KT 17/09 A2991 RMK A01 T01670092  RH  061%=      5-min Rain = 0
KTAS 131106Z 08005KT 17/09 A2991 RMK A01 T01670091  RH  061%=      5-min Rain = 0
KTAS 131107Z 08005KT 17/09 A2991 RMK A01 T01670091  RH  061%=      5-min Rain = 0
KTAS 131108Z 08005KT 17/09 A2991 RMK A01 T01670091  RH  061%=      5-min Rain = 0
KTAS 131109Z 08005KT 17/09 A2991 RMK A01 T01670091  RH  061%=      5-min Rain = 0
KTAS 131110Z 08005KT 17/09 A2991 RMK A01 T01660091  RH  061%=      5-min Rain = 0
KTAS 131111Z 09005KT 17/09 A2991 RMK A01 T01660091  RH  061%=      5-min Rain = 0
KTAS 131112Z 09005KT 17/09 A2991 RMK A01 T01660091  RH  061%=      5-min Rain = 0
KTAS 131113Z 09005KT 17/09 A2991 RMK A01 T01660091  RH  061%=      5-min Rain = 0
KTAS 131114Z 09005KT 17/09 A2991 RMK A01 T01650091  RH  061%=      5-min Rain = 0
KTAS 131115Z 09005KT 17/09 A2991 RMK A01 T01660091  RH  061%=      5-min Rain = 0
KTAS 131116Z 10005KT 17/09 A2991 RMK A01 T01670090  RH  060%=      5-min Rain = 0
KTAS 131117Z 10005KT 17/09 A2991 RMK A01 T01690090  RH  060%=      5-min Rain = 0
KTAS 131118Z 09005KT 17/09 A2991 RMK A01 T01690090  RH  060%=      5-min Rain = 0
KTAS 131119Z 10005KT 17/09 A2991 RMK A01 T01700090  RH  059%=      5-min Rain = 0
KTAS 131120Z 10005KT 17/09 A2991 RMK A01 T01700091  RH  059%=      5-min Rain = 0
KTAS 131121Z 10005KT 17/09 A2991 RMK A01 T01700091  RH  059%=      5-min Rain = 0
KTAS 131122Z 10005KT 17/09 A2991 RMK A01 T01700091  RH  059%=      5-min Rain = 0
KTAS 131123Z 10005KT 17/09 A2991 RMK A01 T01700091  RH  060%=      5-min Rain = 0
KTAS 131124Z 10005KT 17/09 A2991 RMK A01 T01700091  RH  060%=      5-min Rain = 0
KTAS 131125Z 10005KT 17/09 A2991 RMK A01 T01700091  RH  060%=      5-min Rain = 0
KTAS 131126Z 10005KT 17/09 A2991 RMK A01 T01700091  RH  060%=      5-min Rain = 0
KTAS 131127Z 10006KT 17/09 A2991 RMK A01 T01700092  RH  060%=      5-min Rain = 0
KTAS 131128Z 10005KT 17/09 A2991 RMK A01 T01700091  RH  060%=      5-min Rain = 0
KTAS 131129Z 10006KT 17/09 A2991 RMK A01 T01700091  RH  060%=      5-min Rain = 0
KTAS 131130Z 10006KT 17/09 A2991 RMK A01 T01710092  RH  059%=      5-min Rain = 0
KTAS 131131Z 10006KT 17/09 A2991 RMK A01 T01710092  RH  059%=      5-min Rain = 0
KTAS 131132Z 10005KT 17/09 A2991 RMK A01 T01720092  RH  059%=      5-min Rain = 0
KTAS 131133Z 10005KT 17/09 A2991 RMK A01 T01720091  RH  059%=      5-min Rain = 0
KTAS 131134Z 10005KT 17/09 A2991 RMK A01 T01730091  RH  059%=      5-min Rain = 0
KTAS 131135Z 11005KT 17/09 A2991 RMK A01 T01730091  RH  059%=      5-min Rain = 0
KTAS 131136Z 11005KT 17/09 A2991 RMK A01 T01730091  RH  059%=      5-min Rain = 0
KTAS 131137Z 11004KT 17/09 A2991 RMK A01 T01740092  RH  059%=      5-min Rain = 0
KTAS 131138Z 11004KT 17/09 A2991 RMK A01 T01740092  RH  058%=      5-min Rain = 0
KTAS 131139Z 10004KT 17/09 A2991 RMK A01 T01730092  RH  059%=      5-min Rain = 0
KTAS 131140Z 10004KT 17/09 A2991 RMK A01 T01730092  RH  059%=      5-min Rain = 0
KTAS 131141Z 10004KT 17/09 A2991 RMK A01 T01730091  RH  059%=      5-min Rain = 0
KTAS 131142Z 09005KT 17/09 A2992 RMK A01 T01730091  RH  058%=      5-min Rain = 0
KTAS 131143Z 09004KT 17/09 A2992 RMK A01 T01730091  RH  059%=      5-min Rain = 0
KTAS 131144Z 08005KT 17/09 A2992 RMK A01 T01730092  RH  059%=      5-min Rain = 0
KTAS 131145Z 08005KT 17/09 A2992 RMK A01 T01720091  RH  059%=      5-min Rain = 0
KTAS 131146Z 08005KT 17/09 A2992 RMK A01 T01710091  RH  059%=      5-min Rain = 0
KTAS 131147Z 08005KT 17/09 A2992 RMK A01 T01710091  RH  059%=      5-min Rain = 0
KTAS 131148Z 08005KT 17/09 A2992 RMK A01 T01700091  RH  059%=      5-min Rain = 0
KTAS 131149Z 08005KT 17/09 A2992 RMK A01 T01700091  RH  059%=      5-min Rain = 0
KTAS 131150Z 08006KT 17/09 A2991 RMK A01 T01700091  RH  060%=      5-min Rain = 0
KTAS 131151Z 09006KT 17/09 A2991 RMK A01 T01700091  RH  060%=      5-min Rain = 0
KTAS 131152Z 09006KT 17/09 A2991 RMK A01 T01690091  RH  060%=      5-min Rain = 0
KTAS 131153Z 10005KT 17/09 A2991 RMK A01 T01690091  RH  060%=      5-min Rain = 0
KTAS 131154Z 10005KT 17/09 A2991 RMK A01 T01690090  RH  060%=      5-min Rain = 0
KTAS 131155Z 10006KT 17/09 A2991 RMK A01 T01680090  RH  060%=      5-min Rain = 0
KTAS 131156Z 11006KT 17/09 A2991 RMK A01 T01680090  RH  060%=      5-min Rain = 0
KTAS 131157Z 11006KT 17/09 A2991 RMK A01 T01680090  RH  060%=      5-min Rain = 0
KTAS 131158Z 11005KT 17/09 A2991 RMK A01 T01670090  RH  060%=      5-min Rain = 0
KTAS 131159Z 11006KT 17/09 A2991 RMK A01 T01670090  RH  060%=      5-min Rain = 0
KTAS 131200Z 11006KT 17/09 A2991 RMK A01 T01670090  RH  060%=      5-min Rain = 0
KTAS 131201Z 11006KT 17/09 A2991 RMK A01 T01670090  RH  060%=      5-min Rain = 0
KTAS 131202Z 11006KT 17/09 A2991 RMK A01 T01670090  RH  060%=      5-min Rain = 0
KTAS 131203Z 11007KT 17/09 A2991 RMK A01 T01660090  RH  060%=      5-min Rain = 0
KTAS 131204Z 11007KT 17/09 A2991 RMK A01 T01660089  RH  060%=      5-min Rain = 0
KTAS 131205Z 11007KT 17/09 A2991 RMK A01 T01670090  RH  060%=      5-min Rain = 0
KTAS 131206Z 11007KT 17/09 A2991 RMK A01 T01670089  RH  060%=      5-min Rain = 0
KTAS 131207Z 11007KT 17/09 A2991 RMK A01 T01680089  RH  060%=      5-min Rain = 0
KTAS 131208Z 12007KT 17/09 A2991 RMK A01 T01690089  RH  059%=      5-min Rain = 0
KTAS 131209Z 11006KT 17/09 A2991 RMK A01 T01700089  RH  059%=      5-min Rain = 0
KTAS 131210Z 11007KT 17/09 A2991 RMK A01 T01700089  RH  059%=      5-min Rain = 0
KTAS 131211Z 12007KT 17/09 A2991 RMK A01 T01710089  RH  059%=      5-min Rain = 0
KTAS 131212Z 12006KT 17/09 A2991 RMK A01 T01710089  RH  058%=      5-min Rain = 0
KTAS 131213Z 12007KT 17/09 A2991 RMK A01 T01720089  RH  058%=      5-min Rain = 0
KTAS 131214Z 12006KT 17/09 A2991 RMK A01 T01730089  RH  058%=      5-min Rain = 0
KTAS 131215Z 11006KT 17/09 A2991 RMK A01 T01740089  RH  057%=      5-min Rain = 0
KTAS 131216Z 12006KT 17/09 A2991 RMK A01 T01740089  RH  057%=      5-min Rain = 0
KTAS 131217Z 12006KT 18/09 A2991 RMK A01 T01750089  RH  057%=      5-min Rain = 0
KTAS 131218Z 11006KT 18/09 A2991 RMK A01 T01750089  RH  057%=      5-min Rain = 0
KTAS 131219Z 11005KT 18/09 A2991 RMK A01 T01750089  RH  057%=      5-min Rain = 0
KTAS 131220Z 11005KT 18/09 A2992 RMK A01 T01760089  RH  057%=      5-min Rain = 0
KTAS 131221Z 11005KT 18/09 A2992 RMK A01 T01760089  RH  057%=      5-min Rain = 0
KTAS 131222Z 11005KT 18/09 A2992 RMK A01 T01760089  RH  057%=      5-min Rain = 0
KTAS 131223Z 11004KT 18/09 A2992 RMK A01 T01760089  RH  057%=      5-min Rain = 0
KTAS 131224Z 11004KT 18/09 A2992 RMK A01 T01750089  RH  057%=      5-min Rain = 0
KTAS 131225Z 11004KT 18/09 A2992 RMK A01 T01750090  RH  057%=      5-min Rain = 0
KTAS 131226Z 10004KT 18/09 A2992 RMK A01 T01750089  RH  057%=      5-min Rain = 0
KTAS 131227Z 10004KT 18/09 A2992 RMK A01 T01750090  RH  057%=      5-min Rain = 0
KTAS 131228Z 11004KT 18/09 A2992 RMK A01 T01750090  RH  057%=      5-min Rain = 0
KTAS 131229Z 11004KT 17/09 A2992 RMK A01 T01740090  RH  058%=      5-min Rain = 0
KTAS 131230Z 11004KT 17/09 A2992 RMK A01 T01740090  RH  058%=      5-min Rain = 0
KTAS 131231Z 10004KT 17/09 A2992 RMK A01 T01740090  RH  058%=      5-min Rain = 0
KTAS 131232Z 10004KT 17/09 A2992 RMK A01 T01740090  RH  058%=      5-min Rain = 0
KTAS 131233Z 10004KT 17/09 A2992 RMK A01 T01740091  RH  058%=      5-min Rain = 0
KTAS 131234Z 10004KT 17/09 A2992 RMK A01 T01730091  RH  058%=      5-min Rain = 0
KTAS 131235Z 10004KT 17/09 A2992 RMK A01 T01730091  RH  058%=      5-min Rain = 0
KTAS 131236Z 09004KT 17/09 A2992 RMK A01 T01730091  RH  059%=      5-min Rain = 0
KTAS 131237Z 09004KT 17/09 A2992 RMK A01 T01730091  RH  059%=      5-min Rain = 0
KTAS 131238Z 09004KT 17/09 A2992 RMK A01 T01730091  RH  059%=      5-min Rain = 0
KTAS 131239Z 09004KT 17/09 A2992 RMK A01 T01720092  RH  059%=      5-min Rain = 0
KTAS 131240Z 09004KT 17/09 A2992 RMK A01 T01720092  RH  059%=      5-min Rain = 0
KTAS 131241Z 09004KT 17/09 A2992 RMK A01 T01720092  RH  059%=      5-min Rain = 0
KTAS 131242Z 10004KT 17/09 A2992 RMK A01 T01730092  RH  059%=      5-min Rain = 0
KTAS 131243Z 10004KT 17/09 A2992 RMK A01 T01730093  RH  059%=      5-min Rain = 0
KTAS 131244Z 10004KT 17/09 A2992 RMK A01 T01730093  RH  059%=      5-min Rain = 0
KTAS 131245Z 10004KT 17/09 A2992 RMK A01 T01730093  RH  059%=      5-min Rain = 0
KTAS 131246Z 10004KT 17/09 A2992 RMK A01 T01740094  RH  059%=      5-min Rain = 0
KTAS 131247Z 10004KT 17/09 A2992 RMK A01 T01740094  RH  059%=      5-min Rain = 0
KTAS 131248Z 10004KT 17/09 A2992 RMK A01 T01740094  RH  059%=      5-min Rain = 0
KTAS 131249Z 11004KT 18/09 A2992 RMK A01 T01750094  RH  059%=      5-min Rain = 0
KTAS 131250Z 11003KT 18/09 A2992 RMK A01 T01750094  RH  059%=      5-min Rain = 0
KTAS 131251Z 11003KT 18/10 A2992 RMK A01 T01760095  RH  059%=      5-min Rain = 0
KTAS 131252Z 11004KT 18/10 A2992 RMK A01 T01770095  RH  059%=      5-min Rain = 0
KTAS 131253Z 11004KT 18/10 A2992 RMK A01 T01770095  RH  059%=      5-min Rain = 0
KTAS 131254Z 11004KT 18/10 A2992 RMK A01 T01780096  RH  059%=      5-min Rain = 0
KTAS 131255Z 11003KT 18/10 A2992 RMK A01 T01790096  RH  059%=      5-min Rain = 0
KTAS 131256Z 11003KT 18/10 A2992 RMK A01 T01790097  RH  058%=      5-min Rain = 0
KTAS 131257Z 11003KT 18/10 A2992 RMK A01 T01800096  RH  058%=      5-min Rain = 0
KTAS 131258Z 11003KT 18/10 A2992 RMK A01 T01810096  RH  058%=      5-min Rain = 0
KTAS 131259Z 12003KT 18/10 A2992 RMK A01 T01810096  RH  057%=      5-min Rain = 0
KTAS 131300Z 12003KT 18/10 A2992 RMK A01 T01820095  RH  057%=      5-min Rain = 0
KTAS 131301Z 12002KT 18/10 A2993 RMK A01 T01820096  RH  057%=      5-min Rain = 0
KTAS 131302Z 12002KT 18/10 A2993 RMK A01 T01830096  RH  057%=      5-min Rain = 0
KTAS 131303Z 12002KT 18/10 A2993 RMK A01 T01840096  RH  057%=      5-min Rain = 0
KTAS 131304Z 13002KT 18/10 A2993 RMK A01 T01840096  RH  056%=      5-min Rain = 0
KTAS 131305Z 12003KT 19/10 A2993 RMK A01 T01850096  RH  056%=      5-min Rain = 0
KTAS 131306Z 11003KT 19/10 A2993 RMK A01 T01860096  RH  056%=      5-min Rain = 0
KTAS 131307Z 11003KT 19/10 A2993 RMK A01 T01870096  RH  056%=      5-min Rain = 0
KTAS 131308Z 11003KT 19/10 A2993 RMK A01 T01870096  RH  055%=      5-min Rain = 0
KTAS 131309Z 11004KT 19/10 A2993 RMK A01 T01880096  RH  055%=      5-min Rain = 0
KTAS 131310Z 12004KT 19/10 A2993 RMK A01 T01880095  RH  055%=      5-min Rain = 0
KTAS 131311Z 12003KT 19/10 A2993 RMK A01 T01890095  RH  055%=      5-min Rain = 0
KTAS 131312Z 12004KT 19/09 A2993 RMK A01 T01900093  RH  054%=      5-min Rain = 0
KTAS 131313Z 12004KT 19/09 A2993 RMK A01 T01900093  RH  053%=      5-min Rain = 0
KTAS 131314Z 12003KT 19/09 A2993 RMK A01 T01910093  RH  053%=      5-min Rain = 0
KTAS 131315Z 12003KT 19/09 A2993 RMK A01 T01920094  RH  053%=      5-min Rain = 0
KTAS 131316Z 12004KT 19/09 A2993 RMK A01 T01930093  RH  052%=      5-min Rain = 0
KTAS 131317Z 11003KT 19/09 A2993 RMK A01 T01930093  RH  052%=      5-min Rain = 0
KTAS 131318Z 12003KT 19/09 A2993 RMK A01 T01930094  RH  053%=      5-min Rain = 0
KTAS 131319Z 11003KT 19/09 A2993 RMK A01 T01940094  RH  052%=      5-min Rain = 0
KTAS 131320Z 12003KT 20/10 A2993 RMK A01 T01950095  RH  052%=      5-min Rain = 0
KTAS 131321Z 13004KT 20/09 A2993 RMK A01 T01960092  RH  051%=      5-min Rain = 0
KTAS 131322Z 13003KT 20/09 A2993 RMK A01 T01970094  RH  051%=      5-min Rain = 0
KTAS 131323Z 14003KT 20/09 A2993 RMK A01 T01980094  RH  051%=      5-min Rain = 0
KTAS 131324Z 13004KT 20/09 A2993 RMK A01 T01990093  RH  050%=      5-min Rain = 0
KTAS 131325Z 13004KT 20/09 A2993 RMK A01 T02000093  RH  050%=      5-min Rain = 0
KTAS 131326Z 14005KT 20/09 A2993 RMK A01 T02000092  RH  050%=      5-min Rain = 0
KTAS 131327Z 13005KT 20/10 A2993 RMK A01 T02020095  RH  050%=      5-min Rain = 0
KTAS 131328Z 13004KT 20/09 A2993 RMK A01 T02030092  RH  049%=      5-min Rain = 0
KTAS 131329Z 13005KT 20/09 A2993 RMK A01 T02040094  RH  049%=      5-min Rain = 0
KTAS 131330Z 13005KT 21/09 A2993 RMK A01 T02050091  RH  048%=      5-min Rain = 0
KTAS 131331Z 13005KT 21/09 A2993 RMK A01 T02050092  RH  048%=      5-min Rain = 0
KTAS 131332Z 13004KT 21/09 A2993 RMK A01 T02060094  RH  049%=      5-min Rain = 0
KTAS 131333Z 13005KT 21/09 A2993 RMK A01 T02070093  RH  048%=      5-min Rain = 0
KTAS 131334Z 13004KT 21/10 A2993 RMK A01 T02090095  RH  048%=      5-min Rain = 0
KTAS 131335Z 14004KT 21/09 A2993 RMK A01 T02100094  RH  048%=      5-min Rain = 0
KTAS 131336Z 12005KT 21/09 A2993 RMK A01 T02110094  RH  047%=      5-min Rain = 0
KTAS 131337Z 14005KT 21/09 A2993 RMK A01 T02120093  RH  047%=      5-min Rain = 0
KTAS 131338Z 13005KT 21/09 A2993 RMK A01 T02130094  RH  047%=      5-min Rain = 0
KTAS 131339Z 13007KT 21/09 A2993 RMK A01 T02140091  RH  045%=      5-min Rain = 0
KTAS 131340Z 13006KT 21/09 A2993 RMK A01 T02140091  RH  045%=      5-min Rain = 0
KTAS 131341Z 13006KT 21/09 A2993 RMK A01 T02140090  RH  045%=      5-min Rain = 0
KTAS 131342Z 13006KT 22/09 A2993 RMK A01 T02150092  RH  045%=      5-min Rain = 0
KTAS 131343Z 13005KT 22/09 A2993 RMK A01 T02150092  RH  045%=      5-min Rain = 0
KTAS 131344Z 13004KT 22/09 A2993 RMK A01 T02160094  RH  046%=      5-min Rain = 0
KTAS 131345Z 13004KT 22/09 A2993 RMK A01 T02160094  RH  046%=      5-min Rain = 0
KTAS 131346Z 13007KT 22/09 A2993 RMK A01 T02150092  RH  045%=      5-min Rain = 0
KTAS 131347Z 14006KT 21/09 A2993 RMK A01 T02140090  RH  045%=      5-min Rain = 0
KTAS 131348Z 13004KT 21/09 A2993 RMK A01 T02140092  RH  046%=      5-min Rain = 0
KTAS 131349Z 14006KT 21/09 A2993 RMK A01 T02140094  RH  046%=      5-min Rain = 0
KTAS 131350Z 13004KT 22/09 A2993 RMK A01 T02150093  RH  046%=      5-min Rain = 0
KTAS 131351Z 13004KT 22/09 A2993 RMK A01 T02170094  RH  046%=      5-min Rain = 0
KTAS 131352Z 13004KT 22/10 A2993 RMK A01 T02180095  RH  046%=      5-min Rain = 0
KTAS 131353Z 14004KT 22/09 A2993 RMK A01 T02190094  RH  045%=      5-min Rain = 0
KTAS 131354Z 13003KT 22/09 A2993 RMK A01 T02200094  RH  045%=      5-min Rain = 0
KTAS 131355Z 13003KT 22/10 A2993 RMK A01 T02200096  RH  045%=      5-min Rain = 0
KTAS 131356Z 14004KT 22/10 A2993 RMK A01 T02210095  RH  045%=      5-min Rain = 0
KTAS 131357Z 13005KT 22/09 A2993 RMK A01 T02210094  RH  044%=      5-min Rain = 0
KTAS 131358Z 14005KT 22/09 A2993 RMK A01 T02210092  RH  044%=      5-min Rain = 0
KTAS 131359Z 14005KT 22/09 A2993 RMK A01 T02210093  RH  044%=      5-min Rain = 0
KTAS 131400Z 14003KT 22/09 A2993 RMK A01 T02210093  RH  044%=      5-min Rain = 0
KTAS 131401Z 15004KT 22/10 A2993 RMK A01 T02210095  RH  044%=      5-min Rain = 0
KTAS 131402Z 15005KT 22/09 A2993 RMK A01 T02210094  RH  044%=      5-min Rain = 0
KTAS 131403Z 15004KT 22/09 A2993 RMK A01 T02200094  RH  045%=      5-min Rain = 0
KTAS 131404Z 13004KT 22/10 A2993 RMK A01 T02190095  RH  045%=      5-min Rain = 0
KTAS 131405Z 15004KT 22/10 A2993 RMK A01 T02190097  RH  046%=      5-min Rain = 0
KTAS 131406Z 14003KT 22/10 A2993 RMK A01 T02190099  RH  046%=      5-min Rain = 0
KTAS 131407Z 14005KT 22/10 A2993 RMK A01 T02210098  RH  046%=      5-min Rain = 0
KTAS 131408Z 14004KT 22/10 A2993 RMK A01 T02220098  RH  045%=      5-min Rain = 0
KTAS 131409Z 13003KT 22/10 A2993 RMK A01 T02230100  RH  046%=      5-min Rain = 0
KTAS 131410Z 13005KT 22/10 A2993 RMK A01 T02240099  RH  045%=      5-min Rain = 0
KTAS 131411Z 13004KT 22/10 A2993 RMK A01 T02240097  RH  044%=      5-min Rain = 0
KTAS 131412Z 14004KT 22/10 A2993 RMK A01 T02230099  RH  045%=      5-min Rain = 0
KTAS 131413Z 14005KT 22/10 A2993 RMK A01 T02240098  RH  045%=      5-min Rain = 0
KTAS 131414Z 14005KT 22/10 A2993 RMK A01 T02230096  RH  044%=      5-min Rain = 0
KTAS 131415Z 13005KT 22/10 A2993 RMK A01 T02220097  RH  045%=      5-min Rain = 0
KTAS 131416Z 13005KT 22/10 A2992 RMK A01 T02220098  RH  045%=      5-min Rain = 0
KTAS 131417Z 13004KT 22/10 A2992 RMK A01 T02230098  RH  045%=      5-min Rain = 0
KTAS 131418Z 13005KT 22/10 A2993 RMK A01 T02240097  RH  044%=      5-min Rain = 0
KTAS 131419Z 14004KT 22/10 A2993 RMK A01 T02240099  RH  045%=      5-min Rain = 0
KTAS 131420Z 13004KT 23/10 A2993 RMK A01 T02250099  RH  045%=      5-min Rain = 0
KTAS 131421Z 13004KT 23/10 A2993 RMK A01 T02250100  RH  045%=      5-min Rain = 0
KTAS 131422Z 13005KT 23/10 A2993 RMK A01 T02260098  RH  044%=      5-min Rain = 0
KTAS 131423Z 13005KT 23/10 A2993 RMK A01 T02250099  RH  045%=      5-min Rain = 0
KTAS 131424Z 13005KT 23/10 A2993 RMK A01 T02260100  RH  045%=      5-min Rain = 0
KTAS 131425Z 14005KT 23/10 A2993 RMK A01 T02270099  RH  044%=      5-min Rain = 0
KTAS 131426Z 14005KT 23/10 A2993 RMK A01 T02280098  RH  044%=      5-min Rain = 0
KTAS 131427Z 14005KT 23/10 A2993 RMK A01 T02280099  RH  044%=      5-min Rain = 0
KTAS 131428Z 13006KT 23/10 A2993 RMK A01 T02280098  RH  044%=      5-min Rain = 0
KTAS 131429Z 14006KT 23/10 A2993 RMK A01 T02280098  RH  044%=      5-min Rain = 0
KTAS 131430Z 14006KT 23/10 A2993 RMK A01 T02290098  RH  043%=      5-min Rain = 0
KTAS 131431Z 14005KT 23/10 A2993 RMK A01 T02280098  RH  044%=      5-min Rain = 0
KTAS 131432Z 14005KT 23/10 A2993 RMK A01 T02280099  RH  044%=      5-min Rain = 0
KTAS 131433Z 14004KT 23/10 A2993 RMK A01 T02290100  RH  044%=      5-min Rain = 0
KTAS 131434Z 14004KT 23/10 A2993 RMK A01 T02300101  RH  044%=      5-min Rain = 0
KTAS 131435Z 14005KT 23/10 A2993 RMK A01 T02300102  RH  044%=      5-min Rain = 0
KTAS 131436Z 14005KT 23/10 A2993 RMK A01 T02310101  RH  044%=      5-min Rain = 0
KTAS 131437Z 14006KT 23/10 A2993 RMK A01 T02320097  RH  042%=      5-min Rain = 0
KTAS 131438Z 14007KT 23/10 A2993 RMK A01 T02320095  RH  042%=      5-min Rain = 0
KTAS 131439Z 15005KT 23/10 A2993 RMK A01 T02320096  RH  042%=      5-min Rain = 0
KTAS 131440Z 14006KT 23/10 A2993 RMK A01 T02330096  RH  042%=      5-min Rain = 0
KTAS 131441Z 14006KT 23/10 A2993 RMK A01 T02330096  RH  042%=      5-min Rain = 0
KTAS 131442Z 14006KT 23/10 A2993 RMK A01 T02330098  RH  042%=      5-min Rain = 0
KTAS 131443Z 14006KT 23/10 A2993 RMK A01 T02340097  RH  042%=      5-min Rain = 0
KTAS 131444Z 14006KT 23/10 A2993 RMK A01 T02340097  RH  042%=      5-min Rain = 0
KTAS 131445Z 14004KT 23/10 A2993 RMK A01 T02340099  RH  042%=      5-min Rain = 0
KTAS 131446Z 13006KT 24/10 A2993 RMK A01 T02350099  RH  042%=      5-min Rain = 0
KTAS 131447Z 14006KT 24/10 A2993 RMK A01 T02350097  RH  041%=      5-min Rain = 0
KTAS 131448Z 13006KT 24/10 A2993 RMK A01 T02350096  RH  041%=      5-min Rain = 0
KTAS 131449Z 13005KT 24/10 A2993 RMK A01 T02350097  RH  042%=      5-min Rain = 0
KTAS 131450Z 13005KT 24/10 A2993 RMK A01 T02360099  RH  042%=      5-min Rain = 0
KTAS 131451Z 14005KT 24/10 A2993 RMK A01 T02370100  RH  042%=      5-min Rain = 0
KTAS 131452Z 14007KT 24/10 A2993 RMK A01 T02380098  RH  041%=      5-min Rain = 0
KTAS 131453Z 14006KT 24/10 A2993 RMK A01 T02380097  RH  041%=      5-min Rain = 0
KTAS 131454Z 15006KT 24/10 A2993 RMK A01 T02380098  RH  041%=      5-min Rain = 0
KTAS 131455Z 13005KT 24/10 A2993 RMK A01 T02390099  RH  041%=      5-min Rain = 0
KTAS 131456Z 14004KT 24/10 A2993 RMK A01 T02400101  RH  041%=      5-min Rain = 0
KTAS 131457Z 15006KT 24/10 A2993 RMK A01 T02420100  RH  041%=      5-min Rain = 0
KTAS 131458Z 15005KT 24/10 A2993 RMK A01 T02420099  RH  040%=      5-min Rain = 0
KTAS 131459Z 14005KT 24/10 A2993 RMK A01 T02430098  RH  040%=      5-min Rain = 0
KTAS 131500Z 15005KT 24/10 A2993 RMK A01 T02420099  RH  040%=      5-min Rain = 0
KTAS 131501Z 15007KT 24/10 A2993 RMK A01 T02420100  RH  040%=      5-min Rain = 0
KTAS 131502Z 16005KT 24/10 A2993 RMK A01 T02420101  RH  041%=      5-min Rain = 0
KTAS 131503Z 14007KT 24/10 A2993 RMK A01 T02430099  RH  040%=      5-min Rain = 0
KTAS 131504Z 15006KT 24/10 A2993 RMK A01 T02430100  RH  040%=      5-min Rain = 0
KTAS 131505Z 15005KT 24/10 A2993 RMK A01 T02440103  RH  041%=      5-min Rain = 0
KTAS 131506Z 15006KT 25/10 A2993 RMK A01 T02450101  RH  040%=      5-min Rain = 0
KTAS 131507Z 14006KT 25/10 A2993 RMK A01 T02450102  RH  040%=      5-min Rain = 0
KTAS 131508Z 15006KT 25/10 A2993 RMK A01 T02460103  RH  040%=      5-min Rain = 0
KTAS 131509Z 14008KT 25/10 A2993 RMK A01 T02470102  RH  040%=      5-min Rain = 0
KTAS 131510Z 14008KT 25/10 A2993 RMK A01 T02460100  RH  040%=      5-min Rain = 0
KTAS 131511Z 14007KT 25/10 A2993 RMK A01 T02460101  RH  040%=      5-min Rain = 0
KTAS 131512Z 13007KT 25/10 A2993 RMK A01 T02450102  RH  040%=      5-min Rain = 0
KTAS 131513Z 14007KT 25/10 A2993 RMK A01 T02460100  RH  040%=      5-min Rain = 0
KTAS 131514Z 13005KT 25/10 A2993 RMK A01 T02460102  RH  040%=      5-min Rain = 0
KTAS 131515Z 15006KT 25/10 A2993 RMK A01 T02470103  RH  040%=      5-min Rain = 0
KTAS 131516Z 15007KT 25/10 A2993 RMK A01 T02470100  RH  039%=      5-min Rain = 0
KTAS 131517Z 15007KT 25/10 A2993 RMK A01 T02470101  RH  040%=      5-min Rain = 0
KTAS 131518Z 15006KT 25/10 A2993 RMK A01 T02470102  RH  040%=      5-min Rain = 0
KTAS 131519Z 15006KT 25/10 A2993 RMK A01 T02470101  RH  040%=      5-min Rain = 0
KTAS 131520Z 15007KT 25/10 A2993 RMK A01 T02470101  RH  040%=      5-min Rain = 0
KTAS 131521Z 15006KT 25/10 A2993 RMK A01 T02480102  RH  040%=      5-min Rain = 0
KTAS 131522Z 13007KT 25/10 A2993 RMK A01 T02480102  RH  040%=      5-min Rain = 0
KTAS 131523Z 14007KT 25/10 A2993 RMK A01 T02490103  RH  040%=      5-min Rain = 0
KTAS 131524Z 14006KT 25/10 A2993 RMK A01 T02490103  RH  040%=      5-min Rain = 0
KTAS 131525Z 15007KT 25/10 A2993 RMK A01 T02500102  RH  039%=      5-min Rain = 0
KTAS 131526Z 15007KT 25/10 A2993 RMK A01 T02490101  RH  039%=      5-min Rain = 0
KTAS 131527Z 14007KT 25/10 A2993 RMK A01 T02490103  RH  040%=      5-min Rain = 0
KTAS 131528Z 14006KT 25/10 A2993 RMK A01 T02500103  RH  040%=      5-min Rain = 0
KTAS 131529Z 15006KT 25/11 A2994 RMK A01 T02510105  RH  040%=      5-min Rain = 0
KTAS 131530Z 13006KT 25/10 A2994 RMK A01 T02520104  RH  039%=      5-min Rain = 0
KTAS 131531Z 15005KT 25/11 A2994 RMK A01 T02530105  RH  040%=      5-min Rain = 0
KTAS 131532Z 14006KT 25/11 A2994 RMK A01 T02540106  RH  039%=      5-min Rain = 0
KTAS 131533Z 14006KT 25/11 A2994 RMK A01 T02540105  RH  039%=      5-min Rain = 0
KTAS 131534Z 15006KT 26/11 A2994 RMK A01 T02550106  RH  039%=      5-min Rain = 0
KTAS 131535Z 14006KT 26/11 A2994 RMK A01 T02550105  RH  039%=      5-min Rain = 0
KTAS 131536Z 15007KT 25/10 A2994 RMK A01 T02540103  RH  039%=      5-min Rain = 0
KTAS 131537Z 15006KT 25/10 A2994 RMK A01 T02540104  RH  039%=      5-min Rain = 0
KTAS 131538Z 15008KT 25/10 A2994 RMK A01 T02540103  RH  039%=      5-min Rain = 0
KTAS 131539Z 15006KT 25/11 A2994 RMK A01 T02540105  RH  039%=      5-min Rain = 0
KTAS 131540Z 15006KT 26/11 A2994 RMK A01 T02550106  RH  039%=      5-min Rain = 0
KTAS 131541Z 15008KT 26/10 A2994 RMK A01 T02550103  RH  038%=      5-min Rain = 0
KTAS 131542Z 16006KT 26/11 A2994 RMK A01 T02560105  RH  039%=      5-min Rain = 0
KTAS 131543Z 15007KT 26/11 A2994 RMK A01 T02560105  RH  039%=      5-min Rain = 0
KTAS 131544Z 16006KT 26/11 A2994 RMK A01 T02560108  RH  039%=      5-min Rain = 0
KTAS 131545Z 16007KT 26/11 A2994 RMK A01 T02580107  RH  039%=      5-min Rain = 0
KTAS 131546Z 16007KT 26/11 A2994 RMK A01 T02590106  RH  038%=      5-min Rain = 0
KTAS 131547Z 16007KT 26/11 A2994 RMK A01 T02590105  RH  038%=      5-min Rain = 0
KTAS 131548Z 16006KT 26/11 A2994 RMK A01 T02600107  RH  038%=      5-min Rain = 0
KTAS 131549Z 16006KT 26/10 A2994 RMK A01 T02600104  RH  038%=      5-min Rain = 0
KTAS 131550Z 16005KT 26/11 A2994 RMK A01 T02600107  RH  038%=      5-min Rain = 0
KTAS 131551Z 15006KT 26/11 A2994 RMK A01 T02620107  RH  038%=      5-min Rain = 0
KTAS 131552Z 16005KT 26/11 A2994 RMK A01 T02640107  RH  037%=      5-min Rain = 0
KTAS 131553Z 15006KT 27/11 A2994 RMK A01 T02650107  RH  037%=      5-min Rain = 0
KTAS 131554Z 15007KT 27/11 A2994 RMK A01 T02650105  RH  037%=      5-min Rain = 0
KTAS 131555Z 15007KT 26/11 A2994 RMK A01 T02640105  RH  037%=      5-min Rain = 0
KTAS 131556Z 15007KT 26/11 A2994 RMK A01 T02640106  RH  037%=      5-min Rain = 0
KTAS 131557Z 15007KT 26/11 A2994 RMK A01 T02640108  RH  038%=      5-min Rain = 0
KTAS 131558Z 15007KT 27/11 A2994 RMK A01 T02660105  RH  037%=      5-min Rain = 0
KTAS 131559Z 15006KT 27/11 A2994 RMK A01 T02670107  RH  037%=      5-min Rain = 0
KTAS 131600Z 16007KT 27/11 A2994 RMK A01 T02700107  RH  036%=      5-min Rain = 0
KTAS 131601Z 16008KT 27/11 A2994 RMK A01 T02710106  RH  035%=      5-min Rain = 0
KTAS 131602Z 16009KT 27/11 A2994 RMK A01 T02730105  RH  035%=      5-min Rain = 0
KTAS 131603Z 15009KT 27/10 A2994 RMK A01 T02740103  RH  034%=      5-min Rain = 0
KTAS 131604Z 15009KT 27/10 A2994 RMK A01 T02730098  RH  033%=      5-min Rain = 0
KTAS 131605Z 16009KT 27/10 A2994 RMK A01 T02720099  RH  034%=      5-min Rain = 0
KTAS 131606Z 15008KT 27/10 A2994 RMK A01 T02730100  RH  034%=      5-min Rain = 0
KTAS 131607Z 16008KT 28/10 A2994 RMK A01 T02750100  RH  034%=      5-min Rain = 0
KTAS 131608Z 16007KT 28/10 A2994 RMK A01 T02760102  RH  034%=      5-min Rain = 0
KTAS 131609Z 15009KT 28/10 A2994 RMK A01 T02760099  RH  033%=      5-min Rain = 0
KTAS 131610Z 15010KT 28/10 A2994 RMK A01 T02750099  RH  033%=      5-min Rain = 0
KTAS 131611Z 15009KT 27/10 A2994 RMK A01 T02740097  RH  033%=      5-min Rain = 0
KTAS 131612Z 15008KT 27/10 A2994 RMK A01 T02740098  RH  033%=      5-min Rain = 0
KTAS 131613Z 14008KT 28/10 A2994 RMK A01 T02750098  RH  033%=      5-min Rain = 0
KTAS 131614Z 14007KT 28/10 A2994 RMK A01 T02750099  RH  033%=      5-min Rain = 0
KTAS 131615Z 16007KT 28/10 A2993 RMK A01 T02760100  RH  033%=      5-min Rain = 0
KTAS 131616Z 14009KT 28/10 A2993 RMK A01 T02760100  RH  033%=      5-min Rain = 0
KTAS 131617Z 14010KT 27/10 A2993 RMK A01 T02740098  RH  033%=      5-min Rain = 0
KTAS 131618Z 15009KT 27/10 A2993 RMK A01 T02740095  RH  032%=      5-min Rain = 0
KTAS 131619Z 14009KT 27/10 A2993 RMK A01 T02730098  RH  033%=      5-min Rain = 0
KTAS 131620Z 14009KT 27/10 A2993 RMK A01 T02740097  RH  033%=      5-min Rain = 0
KTAS 131621Z 14010KT 28/10 A2993 RMK A01 T02750097  RH  033%=      5-min Rain = 0
KTAS 131622Z 14008KT 27/09 A2993 RMK A01 T02740094  RH  032%=      5-min Rain = 0
KTAS 131623Z 14008KT 27/10 A2993 RMK A01 T02730097  RH  033%=      5-min Rain = 0
KTAS 131624Z 14009KT 27/10 A2993 RMK A01 T02740100  RH  034%=      5-min Rain = 0
KTAS 131625Z 14008KT 28/10 A2993 RMK A01 T02760099  RH  033%=      5-min Rain = 0
KTAS 131626Z 14008KT 28/10 A2993 RMK A01 T02760100  RH  033%=      5-min Rain = 0
KTAS 131627Z 16010KT 28/10 A2993 RMK A01 T02760099  RH  033%=      5-min Rain = 0
KTAS 131628Z 15010KT 28/10 A2993 RMK A01 T02770100  RH  033%=      5-min Rain = 0
KTAS 131629Z 14008KT 28/10 A2993 RMK A01 T02790097  RH  032%=      5-min Rain = 0
KTAS 131630Z 15008KT 28/10 A2993 RMK A01 T02790100  RH  033%=      5-min Rain = 0
KTAS 131631Z 15010KT 28/10 A2993 RMK A01 T02800098  RH  032%=      5-min Rain = 0
KTAS 131632Z 15008KT 28/10 A2993 RMK A01 T02770098  RH  033%=      5-min Rain = 0
KTAS 131633Z 16010KT 28/10 A2993 RMK A01 T02780101  RH  033%=      5-min Rain = 0
KTAS 131634Z 16011KT 28/10 A2993 RMK A01 T02790098  RH  032%=      5-min Rain = 0
KTAS 131635Z 16011KT 28/10 A2993 RMK A01 T02790099  RH  032%=      5-min Rain = 0
KTAS 131636Z 16010KT 28/10 A2993 RMK A01 T02790099  RH  032%=      5-min Rain = 0
KTAS 131637Z 16010KT 28/10 A2993 RMK A01 T02800100  RH  033%=      5-min Rain = 0
KTAS 131638Z 16010KT 28/10 A2993 RMK A01 T02800097  RH  032%=      5-min Rain = 0
KTAS 131639Z 16009KT 28/10 A2993 RMK A01 T02800098  RH  032%=      5-min Rain = 0
KTAS 131640Z 18008KT 28/10 A2993 RMK A01 T02810103  RH  033%=      5-min Rain = 0
KTAS 131641Z 17008KT 28/11 A2993 RMK A01 T02830106  RH  033%=      5-min Rain = 0
KTAS 131642Z 16009KT 28/10 A2993 RMK A01 T02840104  RH  033%=      5-min Rain = 0
KTAS 131643Z 16010KT 28/10 A2993 RMK A01 T02820099  RH  032%=      5-min Rain = 0
KTAS 131644Z 15008KT 28/10 A2993 RMK A01 T02800099  RH  032%=      5-min Rain = 0
KTAS 131645Z 15008KT 28/11 A2993 RMK A01 T02810106  RH  034%=      5-min Rain = 0
KTAS 131646Z 16008KT 29/11 A2993 RMK A01 T02850105  RH  033%=      5-min Rain = 0
KTAS 131647Z 16007KT 29/11 A2993 RMK A01 T02900108  RH  032%=      5-min Rain = 0
KTAS 131648Z 16007KT 29/11 A2993 RMK A01 T02940108  RH  031%=      5-min Rain = 0
KTAS 131649Z 15010KT 30/11 A2993 RMK A01 T02950105  RH  031%=      5-min Rain = 0
KTAS 131650Z 15010KT 29/10 A2993 RMK A01 T02930103  RH  031%=      5-min Rain = 0
KTAS 131651Z 15008KT 29/11 A2993 RMK A01 T02940106  RH  031%=      5-min Rain = 0
KTAS 131652Z 15012KT 30/10 A2993 RMK A01 T02970098  RH  029%=      5-min Rain = 0
KTAS 131653Z 14011KT 30/10 A2993 RMK A01 T02970095  RH  028%=      5-min Rain = 0
KTAS 131654Z 15011KT 30/09 A2993 RMK A01 T02950093  RH  028%=      5-min Rain = 0
KTAS 131655Z 16012KT 30/09 A2993 RMK A01 T02950093  RH  028%=      5-min Rain = 0
KTAS 131656Z 16011KT 30/09 A2993 RMK A01 T02950094  RH  029%=      5-min Rain = 0
KTAS 131657Z 16012KT 30/10 A2993 RMK A01 T02960096  RH  029%=      5-min Rain = 0
KTAS 131658Z 15012KT 30/09 A2993 RMK A01 T02970093  RH  028%=      5-min Rain = 0
KTAS 131659Z 16014KT 30/09 A2993 RMK A01 T02980091  RH  028%=      5-min Rain = 0
KTAS 131700Z 14011KT 30/09 A2993 RMK A01 T02970092  RH  028%=      5-min Rain = 0
KTAS 131701Z 16011KT 30/09 A2993 RMK A01 T02990093  RH  028%=      5-min Rain = 0
KTAS 131702Z 16011KT 30/09 A2993 RMK A01 T02980092  RH  028%=      5-min Rain = 0
KTAS 131703Z 16010KT 30/09 A2993 RMK A01 T02980092  RH  028%=      5-min Rain = 0
KTAS 131704Z 16011KT 30/09 A2993 RMK A01 T02990091  RH  027%=      5-min Rain = 0
KTAS 131705Z 15013KT 30/09 A2993 RMK A01 T03000092  RH  027%=      5-min Rain = 0
KTAS 131706Z 15011KT 30/09 A2993 RMK A01 T03010088  RH  027%=      5-min Rain = 0
KTAS 131707Z 15009G14KT 30/09 A2993 RMK A01 T03010093  RH  027%=      5-min Rain = 0
KTAS 131708Z 15013KT 30/09 A2992 RMK A01 T03040091  RH  027%=      5-min Rain = 0
KTAS 131709Z 14012KT 30/09 A2992 RMK A01 T03020089  RH  027%=      5-min Rain = 0
KTAS 131710Z 15012KT 30/09 A2992 RMK A01 T03010088  RH  027%=      5-min Rain = 0
KTAS 131711Z 15010KT 30/09 A2992 RMK A01 T03010090  RH  027%=      5-min Rain = 0
KTAS 131712Z 15011KT 30/09 A2992 RMK A01 T03020090  RH  027%=      5-min Rain = 0
KTAS 131713Z 16010KT 30/09 A2992 RMK A01 T03030093  RH  027%=      5-min Rain = 0
KTAS 131714Z 17010KT 31/09 A2992 RMK A01 T03050091  RH  026%=      5-min Rain = 0
KTAS 131715Z 16011KT 31/10 A2992 RMK A01 T03050095  RH  027%=      5-min Rain = 0
KTAS 131716Z 14008KT 31/10 A2992 RMK A01 T03090097  RH  027%=      5-min Rain = 0
KTAS 131717Z 14010KT 31/09 A2992 RMK A01 T03110091  RH  026%=      5-min Rain = 0
KTAS 131718Z 15008KT 31/09 A2992 RMK A01 T03080093  RH  026%=      5-min Rain = 0
KTAS 131719Z 17011KT 31/09 A2992 RMK A01 T03080093  RH  026%=      5-min Rain = 0
KTAS 131720Z 18010KT 31/09 A2992 RMK A01 T03060091  RH  026%=      5-min Rain = 0
KTAS 131721Z 17012KT 30/09 A2992 RMK A01 T03040092  RH  027%=      5-min Rain = 0
KTAS 131722Z 16012KT 31/09 A2992 RMK A01 T03050089  RH  026%=      5-min Rain = 0
KTAS 131723Z 15011KT 31/09 A2992 RMK A01 T03050091  RH  026%=      5-min Rain = 0
KTAS 131724Z 16012KT 31/09 A2992 RMK A01 T03080091  RH  026%=      5-min Rain = 0
KTAS 131725Z 16011KT 31/09 A2992 RMK A01 T03070088  RH  026%=      5-min Rain = 0
KTAS 131726Z 16010KT 31/09 A2992 RMK A01 T03070090  RH  026%=      5-min Rain = 0
KTAS 131727Z 16012KT 31/09 A2992 RMK A01 T03100089  RH  025%=      5-min Rain = 0
KTAS 131728Z 15008KT 31/09 A2992 RMK A01 T03100093  RH  026%=      5-min Rain = 0
KTAS 131729Z 16010KT 31/09 A2992 RMK A01 T03110091  RH  025%=      5-min Rain = 0
KTAS 131730Z 17013KT 31/09 A2992 RMK A01 T03090089  RH  025%=      5-min Rain = 0
KTAS 131731Z 16012KT 31/09 A2992 RMK A01 T03070088  RH  026%=      5-min Rain = 0
KTAS 131732Z 15009KT 31/09 A2992 RMK A01 T03070089  RH  026%=      5-min Rain = 0
KTAS 131733Z 15009KT 31/09 A2992 RMK A01 T03090088  RH  025%=      5-min Rain = 0
KTAS 131734Z 15011KT 31/09 A2991 RMK A01 T03110091  RH  026%=      5-min Rain = 0
KTAS 131735Z 15009KT 31/09 A2991 RMK A01 T03130088  RH  025%=      5-min Rain = 0
KTAS 131736Z 14010KT 31/09 A2991 RMK A01 T03120089  RH  025%=      5-min Rain = 0
KTAS 131737Z 14009KT 31/09 A2991 RMK A01 T03140088  RH  025%=      5-min Rain = 0
KTAS 131738Z 15012KT 32/09 A2991 RMK A01 T03150086  RH  024%=      5-min Rain = 0
KTAS 131739Z 14010KT 31/09 A2991 RMK A01 T03120086  RH  025%=      5-min Rain = 0
KTAS 131740Z 15009KT 31/09 A2991 RMK A01 T03090089  RH  025%=      5-min Rain = 0
KTAS 131741Z 16010KT 31/09 A2991 RMK A01 T03100090  RH  026%=      5-min Rain = 0
KTAS 131742Z 16011KT 31/09 A2991 RMK A01 T03110088  RH  025%=      5-min Rain = 0
KTAS 131743Z 17009KT 31/09 A2991 RMK A01 T03120089  RH  025%=      5-min Rain = 0
KTAS 131744Z 18011KT 32/09 A2991 RMK A01 T03150089  RH  025%=      5-min Rain = 0
KTAS 131745Z 17011KT 32/09 A2991 RMK A01 T03150088  RH  025%=      5-min Rain = 0
KTAS 131746Z 15010KT 31/09 A2991 RMK A01 T03130090  RH  025%=      5-min Rain = 0
KTAS 131747Z 14009KT 31/09 A2991 RMK A01 T03130089  RH  025%=      5-min Rain = 0
KTAS 131748Z 16009KT 31/09 A2991 RMK A01 T03110091  RH  026%=      5-min Rain = 0
KTAS 131749Z 15010KT 31/09 A2991 RMK A01 T03120089  RH  025%=      5-min Rain = 0
KTAS 131750Z 16009KT 31/09 A2991 RMK A01 T03130089  RH  025%=      5-min Rain = 0
KTAS 131751Z 17009KT 31/09 A2991 RMK A01 T03140090  RH  025%=      5-min Rain = 0
KTAS 131752Z 17010KT 32/09 A2991 RMK A01 T03180091  RH  025%=      5-min Rain = 0
KTAS 131753Z 16011KT 32/09 A2991 RMK A01 T03180090  RH  024%=      5-min Rain = 0
KTAS 131754Z 15008KT 32/09 A2991 RMK A01 T03170089  RH  024%=      5-min Rain = 0
KTAS 131755Z 16010KT 32/09 A2991 RMK A01 T03180089  RH  024%=      5-min Rain = 0
KTAS 131756Z 17009KT 32/09 A2991 RMK A01 T03170088  RH  024%=      5-min Rain = 0
KTAS 131757Z 17010KT 32/09 A2991 RMK A01 T03190091  RH  024%=      5-min Rain = 0
KTAS 131758Z 15009KT 32/09 A2991 RMK A01 T03190091  RH  024%=      5-min Rain = 0
KTAS 131759Z 16009KT 32/09 A2991 RMK A01 T03190092  RH  025%=      5-min Rain = 0
KTAS 131800Z 15010G15KT 32/09 A2991 RMK A01 T03190091  RH  024%=      5-min Rain = 0
KTAS 131801Z 16010KT 32/09 A2991 RMK A01 T03200093  RH  025%=      5-min Rain = 0
KTAS 131802Z 15010KT 32/09 A2991 RMK A01 T03200088  RH  024%=      5-min Rain = 0
KTAS 131803Z 16009KT 32/09 A2991 RMK A01 T03180090  RH  024%=      5-min Rain = 0
KTAS 131804Z 16009KT 32/09 A2991 RMK A01 T03190090  RH  024%=      5-min Rain = 0
KTAS 131805Z 14008KT 32/09 A2991 RMK A01 T03190087  RH  024%=      5-min Rain = 0
KTAS 131806Z 15008KT 32/09 A2991 RMK A01 T03190091  RH  024%=      5-min Rain = 0
KTAS 131807Z 13008KT 32/09 A2991 RMK A01 T03190088  RH  024%=      5-min Rain = 0
KTAS 131808Z 14010KT 32/09 A2991 RMK A01 T03200088  RH  024%=      5-min Rain = 0
KTAS 131809Z 16009KT 32/09 A2991 RMK A01 T03190088  RH  024%=      5-min Rain = 0
KTAS 131810Z 16010KT 32/09 A2991 RMK A01 T03200086  RH  024%=      5-min Rain = 0
KTAS 131811Z 15009KT 32/09 A2991 RMK A01 T03190086  RH  024%=      5-min Rain = 0
KTAS 131812Z 15008KT 32/09 A2991 RMK A01 T03200089  RH  024%=      5-min Rain = 0
KTAS 131813Z 16009KT 32/09 A299 RMK A01 T03220091  RH  024%=      5-min Rain = 0
KTAS 131814Z 15009KT 32/09 A299 RMK A01 T03230089  RH  024%=      5-min Rain = 0
KTAS 131815Z 14007KT 33/09 A299 RMK A01 T03250087  RH  023%=      5-min Rain = 0
KTAS 131816Z 14007KT 32/09 A299 RMK A01 T03230088  RH  023%=      5-min Rain = 0
KTAS 131817Z 15008KT 32/09 A299 RMK A01 T03240090  RH  024%=      5-min Rain = 0
KTAS 131818Z 16010KT 33/09 A299 RMK A01 T03260086  RH  023%=      5-min Rain = 0
KTAS 131819Z 17010KT 33/08 A299 RMK A01 T03250083  RH  022%=      5-min Rain = 0
KTAS 131820Z 17008KT 32/08 A299 RMK A01 T03230082  RH  022%=      5-min Rain = 0
KTAS 131821Z 17008KT 32/08 A299 RMK A01 T03220083  RH  023%=      5-min Rain = 0
KTAS 131822Z 16009KT 33/08 A299 RMK A01 T03250080  RH  022%=      5-min Rain = 0
KTAS 131823Z 16008KT 33/08 A299 RMK A01 T03250080  RH  022%=      5-min Rain = 0
KTAS 131824Z 16008KT 33/08 A299 RMK A01 T03250082  RH  022%=      5-min Rain = 0
KTAS 131825Z 14010KT 33/09 A299 RMK A01 T03250085  RH  023%=      5-min Rain = 0
KTAS 131826Z 15008KT 32/08 A299 RMK A01 T03240083  RH  023%=      5-min Rain = 0
KTAS 131827Z 15006KT 32/09 A299 RMK A01 T03240086  RH  023%=      5-min Rain = 0
KTAS 131828Z 14011KT 33/09 A299 RMK A01 T03260085  RH  023%=      5-min Rain = 0
KTAS 131829Z 15008KT 33/09 A299 RMK A01 T03250087  RH  023%=      5-min Rain = 0
KTAS 131830Z 16008KT 33/09 A299 RMK A01 T03270086  RH  023%=      5-min Rain = 0
KTAS 131831Z 16008KT 33/09 A299 RMK A01 T03260086  RH  023%=      5-min Rain = 0
KTAS 131832Z 15008KT 33/09 A299 RMK A01 T03260088  RH  023%=      5-min Rain = 0
KTAS 131833Z 14009KT 33/09 A299 RMK A01 T03280085  RH  022%=      5-min Rain = 0
KTAS 131834Z 16008KT 33/09 A299 RMK A01 T03290085  RH  022%=      5-min Rain = 0
KTAS 131835Z 14007KT 33/08 A299 RMK A01 T03310084  RH  022%=      5-min Rain = 0
KTAS 131836Z 14010KT 33/08 A299 RMK A01 T03320083  RH  022%=      5-min Rain = 0
KTAS 131837Z 15008KT 33/08 A299 RMK A01 T03300081  RH  021%=      5-min Rain = 0
KTAS 131838Z 13009KT 33/08 A2989 RMK A01 T03290084  RH  022%=      5-min Rain = 0
KTAS 131839Z 14010KT 33/08 A2989 RMK A01 T03290084  RH  022%=      5-min Rain = 0
KTAS 131840Z 15009KT 33/08 A2989 RMK A01 T03300081  RH  022%=      5-min Rain = 0
KTAS 131841Z 15009KT 33/08 A2989 RMK A01 T03310083  RH  022%=      5-min Rain = 0
KTAS 131842Z 16010KT 33/08 A2989 RMK A01 T03320083  RH  022%=      5-min Rain = 0
KTAS 131843Z 15007KT 33/08 A2989 RMK A01 T03290082  RH  022%=      5-min Rain = 0
KTAS 131844Z 17005KT 33/09 A2989 RMK A01 T03280085  RH  022%=      5-min Rain = 0
KTAS 131845Z 17006KT 33/08 A2989 RMK A01 T03280083  RH  022%=      5-min Rain = 0
KTAS 131846Z 16009KT 33/09 A2989 RMK A01 T03290086  RH  022%=      5-min Rain = 0
KTAS 131847Z 14009KT 33/08 A2989 RMK A01 T03300083  RH  022%=      5-min Rain = 0
KTAS 131848Z 15006KT 33/09 A2989 RMK A01 T03250085  RH  023%=      5-min Rain = 0
KTAS 131849Z 13006KT 33/09 A2989 RMK A01 T03270085  RH  023%=      5-min Rain = 0
KTAS 131850Z 14008KT 33/08 A2989 RMK A01 T03310084  RH  022%=      5-min Rain = 0
KTAS 131851Z 15009KT 33/08 A2989 RMK A01 T03300083  RH  022%=      5-min Rain = 0
KTAS 131852Z 14009KT 33/08 A2989 RMK A01 T03300084  RH  022%=      5-min Rain = 0
KTAS 131853Z 16009KT 33/08 A2989 RMK A01 T03330084  RH  022%=      5-min Rain = 0
KTAS 131854Z 13007KT 34/08 A2989 RMK A01 T03350083  RH  021%=      5-min Rain = 0
KTAS 131855Z 12006KT 33/08 A2989 RMK A01 T03330081  RH  021%=      5-min Rain = 0
KTAS 131856Z 13007KT 33/08 A2989 RMK A01 T03320083  RH  022%=      5-min Rain = 0
KTAS 131857Z 15009KT 33/08 A2989 RMK A01 T03320083  RH  021%=      5-min Rain = 0
KTAS 131858Z 17009KT 33/08 A2989 RMK A01 T03300082  RH  022%=      5-min Rain = 0
KTAS 131859Z 18008KT 33/08 A2989 RMK A01 T03300078  RH  021%=      5-min Rain = 0
KTAS 131900Z 14006KT 33/08 A2989 RMK A01 T03300080  RH  021%=      5-min Rain = 0
KTAS 131901Z 15007KT 33/08 A2988 RMK A01 T03310079  RH  021%=      5-min Rain = 0
KTAS 131902Z 15008KT 33/08 A2988 RMK A01 T03300081  RH  021%=      5-min Rain = 0
KTAS 131903Z 17007KT 33/08 A2988 RMK A01 T03300082  RH  022%=      5-min Rain = 0
KTAS 131904Z 16008KT 33/08 A2988 RMK A01 T03320082  RH  021%=      5-min Rain = 0
KTAS 131905Z 15010KT 33/08 A2988 RMK A01 T03310084  RH  022%=      5-min Rain = 0
KTAS 131906Z 16007KT 33/09 A2988 RMK A01 T03320085  RH  022%=      5-min Rain = 0
KTAS 131907Z 16007KT 33/08 A2988 RMK A01 T03330082  RH  021%=      5-min Rain = 0
KTAS 131908Z 16005KT 33/08 A2988 RMK A01 T03320083  RH  021%=      5-min Rain = 0
KTAS 131909Z 14007KT 33/08 A2988 RMK A01 T03340084  RH  022%=      5-min Rain = 0
KTAS 131910Z 14008KT 34/08 A2988 RMK A01 T03350083  RH  021%=      5-min Rain = 0
KTAS 131911Z 15008KT 34/08 A2988 RMK A01 T03360084  RH  021%=      5-min Rain = 0
KTAS 131912Z 14005KT 34/08 A2988 RMK A01 T03390081  RH  021%=      5-min Rain = 0
KTAS 131913Z 15004KT 34/08 A2988 RMK A01 T03390084  RH  021%=      5-min Rain = 0
KTAS 131914Z 14006KT 34/08 A2988 RMK A01 T03400082  RH  020%=      5-min Rain = 0
KTAS 131915Z 19006KT 34/08 A2988 RMK A01 T03390083  RH  021%=      5-min Rain = 0
KTAS 131916Z 16006KT 34/08 A2988 RMK A01 T03390083  RH  021%=      5-min Rain = 0
KTAS 131917Z 15008KT 34/08 A2988 RMK A01 T03390080  RH  020%=      5-min Rain = 0
KTAS 131918Z 15006KT 34/08 A2988 RMK A01 T03390082  RH  020%=      5-min Rain = 0
KTAS 131919Z 14007KT 34/08 A2988 RMK A01 T03410082  RH  020%=      5-min Rain = 0
KTAS 131920Z 15006KT 34/08 A2988 RMK A01 T03430080  RH  020%=      5-min Rain = 0
KTAS 131921Z 17007KT 34/08 A2987 RMK A01 T03430080  RH  020%=      5-min Rain = 0
KTAS 131922Z 17008KT 34/08 A2987 RMK A01 T03410083  RH  020%=      5-min Rain = 0
KTAS 131923Z 16007KT 34/09 A2987 RMK A01 T03420085  RH  021%=      5-min Rain = 0
KTAS 131924Z 16008KT 34/08 A2987 RMK A01 T03430083  RH  020%=      5-min Rain = 0
KTAS 131925Z 16009KT 34/09 A2987 RMK A01 T03420085  RH  021%=      5-min Rain = 0
KTAS 131926Z 18007KT 34/08 A2987 RMK A01 T03410080  RH  020%=      5-min Rain = 0
KTAS 131927Z 18006KT 34/08 A2987 RMK A01 T03390079  RH  020%=      5-min Rain = 0
KTAS 131928Z 19005G10KT 34/08 A2987 RMK A01 T03360080  RH  021%=      5-min Rain = 0
KTAS 131929Z 15007KT 34/08 A2987 RMK A01 T03360082  RH  021%=      5-min Rain = 0
KTAS 131930Z 14006G11KT 34/08 A2987 RMK A01 T03370079  RH  020%=      5-min Rain = 0
KTAS 131931Z 13008KT 34/08 A2987 RMK A01 T03360079  RH  020%=      5-min Rain = 0
KTAS 131932Z 12005KT 34/08 A2987 RMK A01 T03360079  RH  020%=      5-min Rain = 0
KTAS 131933Z 12004KT 34/08 A2987 RMK A01 T03370078  RH  020%=      5-min Rain = 0
KTAS 131934Z 11004KT 34/08 A2987 RMK A01 T03370079  RH  020%=      5-min Rain = 0
KTAS 131935Z 13007KT 34/08 A2987 RMK A01 T03360081  RH  021%=      5-min Rain = 0
KTAS 131936Z 14007KT 34/08 A2987 RMK A01 T03410081  RH  020%=      5-min Rain = 0
KTAS 131937Z 15006KT 34/08 A2987 RMK A01 T03430081  RH  020%=      5-min Rain = 0
KTAS 131938Z 14006KT 34/08 A2987 RMK A01 T03420082  RH  020%=      5-min Rain = 0
KTAS 131939Z 14006KT 34/08 A2986 RMK A01 T03440082  RH  020%=      5-min Rain = 0
KTAS 131940Z 16008KT 35/08 A2986 RMK A01 T03460080  RH  020%=      5-min Rain = 0
KTAS 131941Z 14010KT 35/08 A2986 RMK A01 T03450079  RH  020%=      5-min Rain = 0
KTAS 131942Z 14008KT 34/08 A2986 RMK A01 T03420080  RH  020%=      5-min Rain = 0
KTAS 131943Z 14005KT 35/08 A2986 RMK A01 T03450078  RH  019%=      5-min Rain = 0
KTAS 131944Z 13003KT 34/08 A2986 RMK A01 T03440075  RH  019%=      5-min Rain = 0
KTAS 131945Z 14005KT 34/08 A2986 RMK A01 T03420078  RH  020%=      5-min Rain = 0
KTAS 131946Z 14006KT 34/08 A2986 RMK A01 T03410081  RH  020%=      5-min Rain = 0
KTAS 131947Z 12008KT 34/08 A2986 RMK A01 T03420081  RH  020%=      5-min Rain = 0
KTAS 131948Z 12007KT 34/08 A2986 RMK A01 T03430080  RH  020%=      5-min Rain = 0
KTAS 131949Z 14008KT 34/08 A2986 RMK A01 T03400080  RH  020%=      5-min Rain = 0
KTAS 131950Z 17009KT 34/08 A2986 RMK A01 T03410078  RH  020%=      5-min Rain = 0
KTAS 131951Z 17010KT 34/08 A2986 RMK A01 T03440077  RH  019%=      5-min Rain = 0
KTAS 131952Z 17009KT 35/07 A2986 RMK A01 T03460072  RH  018%=      5-min Rain = 0
KTAS 131953Z 17007KT 35/07 A2986 RMK A01 T03450073  RH  019%=      5-min Rain = 0
KTAS 131954Z 15006KT 35/07 A2986 RMK A01 T03470072  RH  018%=      5-min Rain = 0
KTAS 131955Z 15007KT 35/08 A2986 RMK A01 T03490075  RH  019%=      5-min Rain = 0
KTAS 131956Z 16010KT 35/08 A2986 RMK A01 T03480076  RH  019%=      5-min Rain = 0
KTAS 131957Z 16006KT 35/07 A2986 RMK A01 T03470073  RH  018%=      5-min Rain = 0
KTAS 131958Z 20003KT 35/07 A2986 RMK A01 T03450073  RH  019%=      5-min Rain = 0
KTAS 131959Z 18003KT 34/07 A2986 RMK A01 T03440073  RH  019%=      5-min Rain = 0
KTAS 132000Z 13006KT 35/08 A2986 RMK A01 T03450076  RH  019%=      5-min Rain = 0
KTAS 132001Z 13007KT 35/08 A2985 RMK A01 T03460077  RH  019%=      5-min Rain = 0
KTAS 132002Z 16010KT 35/08 A2985 RMK A01 T03460075  RH  019%=      5-min Rain = 0
KTAS 132003Z 18009KT 35/07 A2985 RMK A01 T03460071  RH  018%=      5-min Rain = 0
KTAS 132004Z 18007KT 35/07 A2985 RMK A01 T03470070  RH  018%=      5-min Rain = 0
KTAS 132005Z 18005KT 35/07 A2985 RMK A01 T03460069  RH  018%=      5-min Rain = 0
KTAS 132006Z 19006KT 34/07 A2985 RMK A01 T03440070  RH  018%=      5-min Rain = 0
KTAS 132007Z 17005KT 34/07 A2985 RMK A01 T03440071  RH  019%=      5-min Rain = 0
KTAS 132008Z 18006KT 35/08 A2985 RMK A01 T03480077  RH  019%=      5-min Rain = 0
KTAS 132009Z 15008KT 35/07 A2985 RMK A01 T03510072  RH  018%=      5-min Rain = 0
KTAS 132010Z 15012KT 35/08 A2985 RMK A01 T03460075  RH  019%=      5-min Rain = 0
KTAS 132011Z 17009KT 35/08 A2985 RMK A01 T03480075  RH  019%=      5-min Rain = 0
KTAS 132012Z 16009KT 35/07 A2985 RMK A01 T03500074  RH  018%=      5-min Rain = 0
KTAS 132013Z 19008KT 35/07 A2985 RMK A01 T03490073  RH  018%=      5-min Rain = 0
KTAS 132014Z 19008KT 35/07 A2985 RMK A01 T03500068  RH  018%=      5-min Rain = 0
KTAS 132015Z 20006KT 35/07 A2985 RMK A01 T03490070  RH  018%=      5-min Rain = 0
KTAS 132016Z 20004KT 35/07 A2985 RMK A01 T03480069  RH  018%=      5-min Rain = 0
KTAS 132017Z 16006KT 35/07 A2985 RMK A01 T03490073  RH  018%=      5-min Rain = 0
KTAS 132018Z 15006KT 35/07 A2985 RMK A01 T03520070  RH  018%=      5-min Rain = 0
KTAS 132019Z 12004KT 35/07 A2985 RMK A01 T03520071  RH  018%=      5-min Rain = 0
KTAS 132020Z 15003KT 35/07 A2985 RMK A01 T03510071  RH  018%=      5-min Rain = 0
KTAS 132021Z 18006KT 35/07 A2985 RMK A01 T03510070  RH  018%=      5-min Rain = 0
KTAS 132022Z 15008KT 35/07 A2985 RMK A01 T03490073  RH  018%=      5-min Rain = 0
KTAS 132023Z 15008KT 35/08 A2985 RMK A01 T03500075  RH  018%=      5-min Rain = 0
KTAS 132024Z 15006KT 35/08 A2985 RMK A01 T03500076  RH  019%=      5-min Rain = 0
KTAS 132025Z 13007KT 35/08 A2984 RMK A01 T03490075  RH  018%=      5-min Rain = 0
KTAS 132026Z 12005KT 35/07 A2984 RMK A01 T03490073  RH  018%=      5-min Rain = 0
KTAS 132027Z 15004KT 35/07 A2984 RMK A01 T03470074  RH  019%=      5-min Rain = 0
KTAS 132028Z 16006KT 35/07 A2984 RMK A01 T03480072  RH  018%=      5-min Rain = 0
KTAS 132029Z 18005KT 35/07 A2984 RMK A01 T03480072  RH  018%=      5-min Rain = 0
KTAS 132030Z 19002KT 35/07 A2984 RMK A01 T03460073  RH  019%=      5-min Rain = 0
KTAS 132031Z 16002KT 35/08 A2984 RMK A01 T03480075  RH  019%=      5-min Rain = 0
KTAS 132032Z 14007KT 35/08 A2984 RMK A01 T03510076  RH  018%=      5-min Rain = 0
KTAS 132033Z 13007KT 35/07 A2984 RMK A01 T03510071  RH  018%=      5-min Rain = 0
KTAS 132034Z 13007KT 35/07 A2984 RMK A01 T03510071  RH  018%=      5-min Rain = 0
KTAS 132035Z 17009KT 35/07 A2984 RMK A01 T03500068  RH  018%=      5-min Rain = 0
KTAS 132036Z 17010KT 35/07 A2984 RMK A01 T03510069  RH  018%=      5-min Rain = 0
KTAS 132037Z 15007KT 35/07 A2984 RMK A01 T03530067  RH  017%=      5-min Rain = 0
KTAS 132038Z 17006G11KT 35/07 A2984 RMK A01 T03530068  RH  017%=      5-min Rain = 0
KTAS 132039Z 17009KT 35/07 A2984 RMK A01 T03530068  RH  017%=      5-min Rain = 0
KTAS 132040Z 17009KT 35/07 A2984 RMK A01 T03530067  RH  017%=      5-min Rain = 0
KTAS 132041Z 19009KT 35/07 A2984 RMK A01 T03520065  RH  017%=      5-min Rain = 0
KTAS 132042Z 18009KT 35/07 A2984 RMK A01 T03500066  RH  017%=      5-min Rain = 0
KTAS 132043Z 17008KT 35/07 A2984 RMK A01 T03490066  RH  017%=      5-min Rain = 0
KTAS 132044Z 17007KT 35/07 A2984 RMK A01 T03500065  RH  017%=      5-min Rain = 0
KTAS 132045Z 17006KT 35/07 A2984 RMK A01 T03500065  RH  017%=      5-min Rain = 0
KTAS 132046Z 18005KT 35/07 A2984 RMK A01 T03500065  RH  017%=      5-min Rain = 0
KTAS 132047Z 16005KT 35/07 A2984 RMK A01 T03500067  RH  017%=      5-min Rain = 0
KTAS 132048Z 15005KT 35/07 A2984 RMK A01 T03500067  RH  017%=      5-min Rain = 0
KTAS 132049Z 15004KT 35/07 A2984 RMK A01 T03490066  RH  017%=      5-min Rain = 0
KTAS 132050Z 15004KT 35/06 A2984 RMK A01 T03490064  RH  017%=      5-min Rain = 0
KTAS 132051Z 16005KT 35/07 A2984 RMK A01 T03480066  RH  017%=      5-min Rain = 0
KTAS 132052Z 17008KT 35/07 A2984 RMK A01 T03490070  RH  018%=      5-min Rain = 0
KTAS 132053Z 16006KT 35/06 A2984 RMK A01 T03510064  RH  017%=      5-min Rain = 0
KTAS 132054Z 18003KT 35/07 A2984 RMK A01 T03490068  RH  018%=      5-min Rain = 0
KTAS 132055Z 16007KT 35/07 A2984 RMK A01 T03530070  RH  018%=      5-min Rain = 0
KTAS 132056Z 16007KT 35/07 A2984 RMK A01 T03540072  RH  018%=      5-min Rain = 0
KTAS 132057Z 15006KT 36/07 A2984 RMK A01 T03550071  RH  018%=      5-min Rain = 0
KTAS 132058Z 15004KT 35/07 A2984 RMK A01 T03530070  RH  018%=      5-min Rain = 0
KTAS 132059Z 14006KT 35/07 A2984 RMK A01 T03500070  RH  018%=      5-min Rain = 0
KTAS 132100Z 11005KT 35/07 A2984 RMK A01 T03490070  RH  018%=      5-min Rain = 0
KTAS 132101Z 15005KT 35/07 A2984 RMK A01 T03460072  RH  019%=      5-min Rain = 0
KTAS 132102Z 17006KT 35/07 A2984 RMK A01 T03490073  RH  018%=      5-min Rain = 0
KTAS 132103Z 16008KT 35/07 A2984 RMK A01 T03540074  RH  018%=      5-min Rain = 0
KTAS 132104Z 14008KT 36/07 A2984 RMK A01 T03550071  RH  017%=      5-min Rain = 0
KTAS 132105Z 14007KT 35/07 A2984 RMK A01 T03520070  RH  018%=      5-min Rain = 0
KTAS 132106Z 16006KT 35/07 A2984 RMK A01 T03520072  RH  018%=      5-min Rain = 0
KTAS 132107Z 17008KT 35/07 A2984 RMK A01 T03520068  RH  017%=      5-min Rain = 0
KTAS 132108Z 15008KT 35/07 A2984 RMK A01 T03490069  RH  018%=      5-min Rain = 0
KTAS 132109Z 16006KT 35/07 A2984 RMK A01 T03500071  RH  018%=      5-min Rain = 0
KTAS 132110Z 14011KT 35/07 A2984 RMK A01 T03510069  RH  018%=      5-min Rain = 0
KTAS 132111Z 14006KT 35/07 A2983 RMK A01 T03490069  RH  018%=      5-min Rain = 0
KTAS 132112Z 14007KT 35/07 A2983 RMK A01 T03490070  RH  018%=      5-min Rain = 0
KTAS 132113Z 16005G10KT 35/07 A2983 RMK A01 T03490070  RH  018%=      5-min Rain = 0
KTAS 132114Z 16010KT 35/07 A2983 RMK A01 T03500073  RH  018%=      5-min Rain = 0
KTAS 132115Z 14008KT 35/07 A2983 RMK A01 T03520074  RH  018%=      5-min Rain = 0
KTAS 132116Z 15007KT 35/08 A2983 RMK A01 T03520075  RH  018%=      5-min Rain = 0
KTAS 132117Z 16007KT 35/08 A2983 RMK A01 T03540075  RH  018%=      5-min Rain = 0
KTAS 132118Z 15009KT 36/07 A2983 RMK A01 T03550074  RH  018%=      5-min Rain = 0
KTAS 132119Z 14008KT 36/08 A2983 RMK A01 T03560075  RH  018%=      5-min Rain = 0
KTAS 132120Z 14006KT 35/07 A2983 RMK A01 T03540071  RH  018%=      5-min Rain = 0
KTAS 132121Z 14008KT 35/07 A2983 RMK A01 T03510073  RH  018%=      5-min Rain = 0
KTAS 132122Z 15008KT 35/07 A2983 RMK A01 T03500074  RH  018%=      5-min Rain = 0
KTAS 132123Z 15008KT 35/07 A2983 RMK A01 T03510073  RH  018%=      5-min Rain = 0
KTAS 132124Z 14007KT 35/07 A2983 RMK A01 T03500073  RH  018%=      5-min Rain = 0
KTAS 132125Z 14007KT 35/07 A2983 RMK A01 T03510074  RH  018%=      5-min Rain = 0
KTAS 132126Z 14005KT 35/07 A2983 RMK A01 T03520071  RH  018%=      5-min Rain = 0
KTAS 132127Z 18004KT 35/07 A2983 RMK A01 T03490069  RH  018%=      5-min Rain = 0
KTAS 132128Z 16006G11KT 35/07 A2983 RMK A01 T03480073  RH  018%=      5-min Rain = 0
KTAS 132129Z 15009KT 35/08 A2983 RMK A01 T03500076  RH  019%=      5-min Rain = 0
KTAS 132130Z 15009KT 35/08 A2983 RMK A01 T03520079  RH  019%=      5-min Rain = 0
KTAS 132131Z 15010KT 36/07 A2983 RMK A01 T03550074  RH  018%=      5-min Rain = 0
KTAS 132132Z 15009G14KT 35/07 A2983 RMK A01 T03540073  RH  018%=      5-min Rain = 0
KTAS 132133Z 13007KT 35/07 A2983 RMK A01 T03510071  RH  018%=      5-min Rain = 0
KTAS 132134Z 13005KT 35/07 A2983 RMK A01 T03480071  RH  018%=      5-min Rain = 0
KTAS 132135Z 14008KT 35/07 A2983 RMK A01 T03470072  RH  018%=      5-min Rain = 0
KTAS 132136Z 14009KT 35/07 A2983 RMK A01 T03460072  RH  018%=      5-min Rain = 0
KTAS 132137Z 14008KT 35/07 A2983 RMK A01 T03470072  RH  018%=      5-min Rain = 0
KTAS 132138Z 15006KT 35/07 A2983 RMK A01 T03480071  RH  018%=      5-min Rain = 0
KTAS 132139Z 16006KT 35/07 A2983 RMK A01 T03480073  RH  018%=      5-min Rain = 0
KTAS 132140Z 13007KT 35/08 A2983 RMK A01 T03510075  RH  018%=      5-min Rain = 0
KTAS 132141Z 12010KT 35/07 A2982 RMK A01 T03530074  RH  018%=      5-min Rain = 0
KTAS 132142Z 15011KT 35/07 A2982 RMK A01 T03530072  RH  018%=      5-min Rain = 0
KTAS 132143Z 14008KT 35/07 A2983 RMK A01 T03520071  RH  018%=      5-min Rain = 0
KTAS 132144Z 14005KT 35/07 A2982 RMK A01 T03510068  RH  017%=      5-min Rain = 0
KTAS 132145Z 12003KT 35/07 A2982 RMK A01 T03480068  RH  018%=      5-min Rain = 0
KTAS 132146Z 13008KT 35/07 A2982 RMK A01 T03470072  RH  018%=      5-min Rain = 0
KTAS 132147Z 13009KT 35/07 A2982 RMK A01 T03490070  RH  018%=      5-min Rain = 0
KTAS 132148Z 13007KT 35/07 A2982 RMK A01 T03480070  RH  018%=      5-min Rain = 0
KTAS 132149Z 13006KT 35/07 A2982 RMK A01 T03500070  RH  018%=      5-min Rain = 0
KTAS 132150Z 11004KT 35/07 A2982 RMK A01 T03510069  RH  018%=      5-min Rain = 0
KTAS 132151Z 11004KT 35/07 A2982 RMK A01 T03520071  RH  018%=      5-min Rain = 0
KTAS 132152Z 12006KT 35/07 A2982 RMK A01 T03520070  RH  018%=      5-min Rain = 0
KTAS 132153Z 14009KT 35/07 A2982 RMK A01 T03520072  RH  018%=      5-min Rain = 0
KTAS 132154Z 13007KT 35/07 A2982 RMK A01 T03530073  RH  018%=      5-min Rain = 0
KTAS 132155Z 15008KT 36/08 A2982 RMK A01 T03560078  RH  018%=      5-min Rain = 0
KTAS 132156Z 15008KT 36/07 A2982 RMK A01 T03600071  RH  017%=      5-min Rain = 0
KTAS 132157Z 13008KT 36/07 A2982 RMK A01 T03590072  RH  017%=      5-min Rain = 0
KTAS 132158Z 13010KT 36/07 A2982 RMK A01 T03580068  RH  017%=      5-min Rain = 0
KTAS 132159Z 13008KT 35/07 A2982 RMK A01 T03530069  RH  017%=      5-min Rain = 0
KTAS 132200Z 13006KT 35/07 A2982 RMK A01 T03520068  RH  017%=      5-min Rain = 0
KTAS 132201Z 15006KT 35/07 A2982 RMK A01 T03530071  RH  018%=      5-min Rain = 0
KTAS 132202Z 18007KT 35/07 A2982 RMK A01 T03530072  RH  018%=      5-min Rain = 0
KTAS 132203Z 17008KT 36/07 A2982 RMK A01 T03550067  RH  017%=      5-min Rain = 0
KTAS 132204Z 18009KT 36/06 A2982 RMK A01 T03560064  RH  017%=      5-min Rain = 0
KTAS 132205Z 17008KT 35/07 A2982 RMK A01 T03530067  RH  017%=      5-min Rain = 0
KTAS 132206Z 16007KT 35/07 A2982 RMK A01 T03520071  RH  018%=      5-min Rain = 0
KTAS 132207Z 17004KT 35/07 A2982 RMK A01 T03530072  RH  018%=      5-min Rain = 0
KTAS 132208Z 20004G9KT 35/07 A2982 RMK A01 T03530070  RH  017%=      5-min Rain = 0
KTAS 132209Z 18007KT 36/07 A2982 RMK A01 T03550068  RH  017%=      5-min Rain = 0
KTAS 132210Z 16008KT 36/07 A2982 RMK A01 T03560069  RH  017%=      5-min Rain = 0
KTAS 132211Z 16006KT 36/07 A2982 RMK A01 T03550071  RH  017%=      5-min Rain = 0
KTAS 132212Z 16008KT 35/07 A2982 RMK A01 T03540071  RH  017%=      5-min Rain = 0
KTAS 132213Z 15009KT 35/07 A2982 RMK A01 T03530071  RH  018%=      5-min Rain = 0
KTAS 132214Z 16007KT 36/08 A2982 RMK A01 T03550076  RH  018%=      5-min Rain = 0
KTAS 132215Z 18010KT 36/07 A2982 RMK A01 T03570073  RH  017%=      5-min Rain = 0
KTAS 132216Z 18008KT 36/06 A2982 RMK A01 T03550063  RH  016%=      5-min Rain = 0
KTAS 132217Z 18007KT 35/06 A2982 RMK A01 T03510063  RH  017%=      5-min Rain = 0
KTAS 132218Z 19005KT 35/06 A2982 RMK A01 T03510063  RH  017%=      5-min Rain = 0
KTAS 132219Z 18004KT 35/07 A2982 RMK A01 T03520066  RH  017%=      5-min Rain = 0
KTAS 132220Z 16009KT 35/07 A2982 RMK A01 T03540068  RH  017%=      5-min Rain = 0
KTAS 132221Z 17009KT 36/07 A2982 RMK A01 T03550068  RH  017%=      5-min Rain = 0
KTAS 132222Z 16009KT 35/07 A2982 RMK A01 T03540068  RH  017%=      5-min Rain = 0
KTAS 132223Z 17009KT 35/07 A2982 RMK A01 T03530066  RH  017%=      5-min Rain = 0
KTAS 132224Z 17007KT 35/07 A2982 RMK A01 T03520068  RH  017%=      5-min Rain = 0
KTAS 132225Z 16006KT 35/07 A2982 RMK A01 T03530073  RH  018%=      5-min Rain = 0
KTAS 132226Z 17005KT 35/07 A2982 RMK A01 T03540071  RH  018%=      5-min Rain = 0
KTAS 132227Z 17009KT 35/06 A2982 RMK A01 T03540064  RH  017%=      5-min Rain = 0
KTAS 132228Z 17009KT 35/06 A2982 RMK A01 T03520063  RH  017%=      5-min Rain = 0
KTAS 132229Z 16009KT 35/06 A2982 RMK A01 T03500061  RH  017%=      5-min Rain = 0
KTAS 132230Z 18008KT 35/06 A2982 RMK A01 T03490061  RH  017%=      5-min Rain = 0
KTAS 132231Z 17007KT 35/06 A2982 RMK A01 T03490060  RH  017%=      5-min Rain = 0
KTAS 132232Z 16007KT 35/06 A2982 RMK A01 T03490059  RH  017%=      5-min Rain = 0
KTAS 132233Z 15005KT 35/06 A2982 RMK A01 T03490062  RH  017%=      5-min Rain = 0
KTAS 132234Z 14007KT 35/06 A2982 RMK A01 T03500062  RH  017%=      5-min Rain = 0
KTAS 132235Z 16008KT 35/07 A2982 RMK A01 T03490070  RH  018%=      5-min Rain = 0
KTAS 132236Z 16009KT 35/07 A2982 RMK A01 T03500066  RH  017%=      5-min Rain = 0
KTAS 132237Z 15008KT 35/06 A2982 RMK A01 T03490063  RH  017%=      5-min Rain = 0
KTAS 132238Z 15006KT 35/06 A2982 RMK A01 T03480061  RH  017%=      5-min Rain = 0
KTAS 132239Z 14004KT 35/06 A2982 RMK A01 T03480064  RH  017%=      5-min Rain = 0
KTAS 132240Z 16006KT 35/07 A2982 RMK A01 T03490071  RH  018%=      5-min Rain = 0
KTAS 132241Z 17006KT 35/07 A2982 RMK A01 T03510073  RH  018%=      5-min Rain = 0
KTAS 132242Z 18008KT 35/07 A2982 RMK A01 T03510070  RH  018%=      5-min Rain = 0
KTAS 132243Z 17005KT 35/06 A2982 RMK A01 T03490061  RH  017%=      5-min Rain = 0
KTAS 132244Z 16004KT 35/06 A2982 RMK A01 T03470064  RH  017%=      5-min Rain = 0
KTAS 132245Z 17003KT 35/06 A2982 RMK A01 T03490063  RH  017%=      5-min Rain = 0
KTAS 132246Z 19003KT 35/07 A2982 RMK A01 T03490065  RH  017%=      5-min Rain = 0
KTAS 132247Z 18004KT 35/06 A2982 RMK A01 T03500061  RH  017%=      5-min Rain = 0
KTAS 132248Z 18005KT 35/06 A2982 RMK A01 T03480061  RH  017%=      5-min Rain = 0
KTAS 132249Z 17005KT 35/06 A2982 RMK A01 T03470064  RH  017%=      5-min Rain = 0
KTAS 132250Z 18005KT 35/07 A2981 RMK A01 T03480066  RH  018%=      5-min Rain = 0
KTAS 132251Z 19005KT 35/07 A2981 RMK A01 T03500066  RH  017%=      5-min Rain = 0
KTAS 132252Z 17005KT 35/07 A2981 RMK A01 T03510067  RH  017%=      5-min Rain = 0
KTAS 132253Z 18008KT 35/07 A2981 RMK A01 T03510068  RH  017%=      5-min Rain = 0
KTAS 132254Z 17007KT 35/07 A2981 RMK A01 T03500066  RH  017%=      5-min Rain = 0
KTAS 132255Z 17008KT 35/07 A2981 RMK A01 T03500068  RH  018%=      5-min Rain = 0
KTAS 132256Z 18007KT 35/07 A2981 RMK A01 T03490071  RH  018%=      5-min Rain = 0
KTAS 132257Z 17008KT 35/07 A2981 RMK A01 T03480069  RH  018%=      5-min Rain = 0
KTAS 132258Z 18008KT 35/07 A2981 RMK A01 T03470068  RH  018%=      5-min Rain = 0
KTAS 132259Z 17008KT 35/07 A2981 RMK A01 T03450068  RH  018%=      5-min Rain = 0
KTAS 132300Z 17007KT 35/07 A2981 RMK A01 T03460069  RH  018%=      5-min Rain = 0
KTAS 132301Z 17007KT 35/07 A2981 RMK A01 T03460068  RH  018%=      5-min Rain = 0
KTAS 132302Z 17006KT 35/07 A2981 RMK A01 T03450065  RH  018%=      5-min Rain = 0
KTAS 132303Z 17006KT 35/07 A2981 RMK A01 T03470072  RH  018%=      5-min Rain = 0
KTAS 132304Z 17006KT 35/06 A2981 RMK A01 T03470064  RH  017%=      5-min Rain = 0
KTAS 132305Z 15007KT 35/07 A2981 RMK A01 T03460066  RH  018%=      5-min Rain = 0
KTAS 132306Z 16007KT 35/07 A2981 RMK A01 T03450067  RH  018%=      5-min Rain = 0
KTAS 132307Z 16006KT 35/07 A2981 RMK A01 T03450071  RH  018%=      5-min Rain = 0
KTAS 132308Z 16006KT 34/08 A2981 RMK A01 T03440076  RH  019%=      5-min Rain = 0
KTAS 132309Z 16005KT 35/08 A2981 RMK A01 T03450077  RH  019%=      5-min Rain = 0
KTAS 132310Z 16006KT 35/08 A2981 RMK A01 T03460077  RH  019%=      5-min Rain = 0
KTAS 132311Z 16006KT 35/07 A2981 RMK A01 T03450074  RH  019%=      5-min Rain = 0
KTAS 132312Z 18008KT 35/08 A2981 RMK A01 T03450077  RH  019%=      5-min Rain = 0
KTAS 132313Z 17007KT 35/07 A2981 RMK A01 T03450073  RH  019%=      5-min Rain = 0
KTAS 132314Z 18008KT 35/07 A2981 RMK A01 T03450067  RH  018%=      5-min Rain = 0
KTAS 132315Z 18007KT 34/07 A2981 RMK A01 T03440066  RH  018%=      5-min Rain = 0
KTAS 132316Z 19008KT 34/06 A2981 RMK A01 T03440062  RH  017%=      5-min Rain = 0
KTAS 132317Z 17006KT 34/06 A2981 RMK A01 T03440064  RH  018%=      5-min Rain = 0
KTAS 132318Z 18007KT 35/06 A2981 RMK A01 T03450064  RH  018%=      5-min Rain = 0
KTAS 132319Z 17006KT 34/07 A2981 RMK A01 T03440070  RH  018%=      5-min Rain = 0
KTAS 132320Z 18006KT 34/07 A2981 RMK A01 T03430073  RH  019%=      5-min Rain = 0
KTAS 132321Z 17006KT 34/08 A2981 RMK A01 T03430075  RH  019%=      5-min Rain = 0
KTAS 132322Z 17006KT 34/08 A2981 RMK A01 T03420075  RH  019%=      5-min Rain = 0
KTAS 132323Z 17006KT 34/08 A2981 RMK A01 T03430075  RH  019%=      5-min Rain = 0
KTAS 132324Z 17006KT 34/07 A2981 RMK A01 T03430073  RH  019%=      5-min Rain = 0
KTAS 132325Z 17006KT 34/07 A2981 RMK A01 T03430073  RH  019%=      5-min Rain = 0
KTAS 132326Z 17006KT 34/07 A2981 RMK A01 T03430070  RH  018%=      5-min Rain = 0
KTAS 132327Z 17005KT 34/07 A2981 RMK A01 T03420071  RH  019%=      5-min Rain = 0
KTAS 132328Z 17006KT 34/08 A2981 RMK A01 T03410075  RH  019%=      5-min Rain = 0
KTAS 132329Z 17006KT 34/08 A2981 RMK A01 T03420077  RH  020%=      5-min Rain = 0
KTAS 132330Z 16006KT 34/07 A2981 RMK A01 T03420071  RH  019%=      5-min Rain = 0
KTAS 132331Z 16007KT 34/06 A2981 RMK A01 T03410064  RH  018%=      5-min Rain = 0
KTAS 132332Z 17006KT 34/07 A2981 RMK A01 T03400066  RH  018%=      5-min Rain = 0
KTAS 132333Z 18006KT 34/07 A2981 RMK A01 T03400069  RH  019%=      5-min Rain = 0
KTAS 132334Z 18007KT 34/07 A2981 RMK A01 T03390071  RH  019%=      5-min Rain = 0
KTAS 132335Z 18006KT 34/07 A2981 RMK A01 T03400069  RH  019%=      5-min Rain = 0
KTAS 132336Z 17006KT 34/07 A2981 RMK A01 T03390066  RH  018%=      5-min Rain = 0
KTAS 132337Z 18005KT 34/07 A2981 RMK A01 T03390070  RH  019%=      5-min Rain = 0
KTAS 132338Z 18006KT 34/07 A2981 RMK A01 T03390068  RH  019%=      5-min Rain = 0
KTAS 132339Z 18005KT 34/06 A2981 RMK A01 T03390061  RH  018%=      5-min Rain = 0
KTAS 132340Z 17004KT 34/07 A2981 RMK A01 T03390066  RH  018%=      5-min Rain = 0
KTAS 132341Z 18005KT 34/07 A2981 RMK A01 T03390066  RH  018%=      5-min Rain = 0
KTAS 132342Z 17005KT 34/07 A2981 RMK A01 T03390066  RH  018%=      5-min Rain = 0
KTAS 132343Z 17006KT 34/07 A2981 RMK A01 T03380071  RH  019%=      5-min Rain = 0
KTAS 132344Z 17005KT 34/08 A2981 RMK A01 T03370075  RH  020%=      5-min Rain = 0
KTAS 132345Z 17005KT 34/08 A2981 RMK A01 T03370076  RH  020%=      5-min Rain = 0
KTAS 132346Z 17005KT 34/08 A2981 RMK A01 T03370079  RH  020%=      5-min Rain = 0
KTAS 132347Z 18005KT 34/08 A2981 RMK A01 T03360078  RH  020%=      5-min Rain = 0
KTAS 132348Z 17005KT 34/08 A2981 RMK A01 T03350080  RH  021%=      5-min Rain = 0
KTAS 132349Z 17005KT 33/08 A2981 RMK A01 T03340082  RH  021%=      5-min Rain = 0
KTAS 132350Z 17004KT 33/09 A2981 RMK A01 T03340085  RH  022%=      5-min Rain = 0
KTAS 132351Z 17005KT 33/08 A2981 RMK A01 T03340083  RH  021%=      5-min Rain = 0
KTAS 132352Z 17005KT 33/07 A2981 RMK A01 T03340073  RH  020%=      5-min Rain = 0
KTAS 132353Z 17005KT 33/08 A2981 RMK A01 T03340078  RH  021%=      5-min Rain = 0
KTAS 132354Z 17006KT 33/08 A2981 RMK A01 T03340076  RH  020%=      5-min Rain = 0
KTAS 132355Z 17005KT 33/08 A2981 RMK A01 T03330078  RH  021%=      5-min Rain = 0
KTAS 132356Z 18005KT 33/08 A2981 RMK A01 T03320082  RH  021%=      5-min Rain = 0
KTAS 132357Z 17005KT 33/08 A2981 RMK A01 T03310084  RH  022%=      5-min Rain = 0
KTAS 132358Z 18006KT 33/08 A2981 RMK A01 T03310081  RH  021%=      5-min Rain = 0
KTAS 132359Z 17006KT 33/08 A2981 RMK A01 T03300081  RH  021%=      5-min Rain = 0
KTAS 140000Z 17006KT 33/08 A2981 RMK A01 T03290079  RH  021%=      5-min Rain = 0
KTAS 140001Z 17005KT 33/08 A2981 RMK A01 T03290082  RH  022%=      5-min Rain = 0
KTAS 140002Z 17005KT 33/08 A2981 RMK A01 T03280082  RH  022%=      5-min Rain = 0
KTAS 140003Z 17005KT 33/08 A2981 RMK A01 T03280084  RH  022%=      5-min Rain = 0
KTAS 140004Z 17005KT 33/09 A2981 RMK A01 T03270085  RH  022%=      5-min Rain = 0
KTAS 140005Z 17005KT 33/08 A2981 RMK A01 T03270084  RH  022%=      5-min Rain = 0
KTAS 140006Z 17005KT 33/09 A2981 RMK A01 T03260085  RH  023%=      5-min Rain = 0
KTAS 140007Z 17005KT 33/09 A2981 RMK A01 T03250089  RH  023%=      5-min Rain = 0
KTAS 140008Z 17005KT 32/09 A2981 RMK A01 T03240091  RH  024%=      5-min Rain = 0
KTAS 140009Z 18005KT 32/09 A2981 RMK A01 T03230093  RH  024%=      5-min Rain = 0
KTAS 140010Z 18005KT 32/09 A2981 RMK A01 T03220093  RH  024%=      5-min Rain = 0
KTAS 140011Z 18005KT 32/09 A2981 RMK A01 T03210092  RH  024%=      5-min Rain = 0
KTAS 140012Z 18005KT 32/09 A2981 RMK A01 T03200092  RH  024%=      5-min Rain = 0
KTAS 140013Z 18005KT 32/09 A2981 RMK A01 T03200093  RH  025%=      5-min Rain = 0
KTAS 140014Z 17005KT 32/09 A2981 RMK A01 T03190094  RH  025%=      5-min Rain = 0
KTAS 140015Z 17005KT 32/09 A2981 RMK A01 T03190094  RH  025%=      5-min Rain = 0
KTAS 140016Z 18005KT 32/09 A2981 RMK A01 T03180092  RH  025%=      5-min Rain = 0
KTAS 140017Z 18005KT 32/09 A2981 RMK A01 T03180093  RH  025%=      5-min Rain = 0
KTAS 140018Z 18005KT 32/09 A2981 RMK A01 T03170093  RH  025%=      5-min Rain = 0
KTAS 140019Z 18005KT 32/09 A2981 RMK A01 T03160092  RH  025%=      5-min Rain = 0
KTAS 140020Z 18005KT 32/09 A2981 RMK A01 T03160091  RH  025%=      5-min Rain = 0
KTAS 140021Z 18004KT 32/09 A2981 RMK A01 T03150092  RH  025%=      5-min Rain = 0
KTAS 140022Z 18004KT 31/09 A2981 RMK A01 T03140094  RH  026%=      5-min Rain = 0
KTAS 140023Z 18004KT 31/10 A2981 RMK A01 T03130095  RH  026%=      5-min Rain = 0
KTAS 140024Z 18004KT 31/10 A2981 RMK A01 T03120097  RH  026%=      5-min Rain = 0
KTAS 140025Z 17005KT 31/10 A2981 RMK A01 T03110096  RH  027%=      5-min Rain = 0
KTAS 140026Z 17005KT 31/10 A2981 RMK A01 T03090097  RH  027%=      5-min Rain = 0
KTAS 140027Z 17005KT 31/10 A2981 RMK A01 T03080095  RH  027%=      5-min Rain = 0
KTAS 140028Z 17005KT 31/10 A2981 RMK A01 T03070096  RH  027%=      5-min Rain = 0
KTAS 140029Z 17005KT 31/10 A2981 RMK A01 T03060097  RH  027%=      5-min Rain = 0
KTAS 140030Z 17005KT 31/10 A2981 RMK A01 T03050097  RH  027%=      5-min Rain = 0
KTAS 140031Z 17005KT 31/10 A2981 RMK A01 T03050097  RH  028%=      5-min Rain = 0
KTAS 140032Z 17005KT 30/10 A2981 RMK A01 T03040097  RH  028%=      5-min Rain = 0
KTAS 140033Z 17005KT 30/10 A2981 RMK A01 T03030098  RH  028%=      5-min Rain = 0
KTAS 140034Z 17005KT 30/10 A2981 RMK A01 T03020098  RH  028%=      5-min Rain = 0
KTAS 140035Z 17005KT 30/10 A2981 RMK A01 T03010098  RH  028%=      5-min Rain = 0
KTAS 140036Z 17005KT 30/10 A2981 RMK A01 T03000097  RH  028%=      5-min Rain = 0
KTAS 140037Z 17005KT 30/10 A2981 RMK A01 T02990099  RH  029%=      5-min Rain = 0
KTAS 140038Z 17006KT 30/10 A2981 RMK A01 T02980101  RH  029%=      5-min Rain = 0
KTAS 140039Z 17006KT 30/10 A2981 RMK A01 T02970100  RH  029%=      5-min Rain = 0
KTAS 140040Z 18006KT 30/10 A2981 RMK A01 T02960098  RH  029%=      5-min Rain = 0
KTAS 140041Z 18006KT 30/10 A2981 RMK A01 T02950097  RH  029%=      5-min Rain = 0
KTAS 140042Z 18006KT 29/10 A2981 RMK A01 T02940098  RH  029%=      5-min Rain = 0
KTAS 140043Z 17006KT 29/10 A2981 RMK A01 T02930099  RH  030%=      5-min Rain = 0
KTAS 140044Z 17006KT 29/10 A2981 RMK A01 T02920099  RH  030%=      5-min Rain = 0
KTAS 140045Z 17005KT 29/10 A2981 RMK A01 T02910099  RH  030%=      5-min Rain = 0
KTAS 140046Z 17006KT 29/10 A2981 RMK A01 T02900099  RH  030%=      5-min Rain = 0
KTAS 140047Z 17005KT 29/10 A2981 RMK A01 T02890099  RH  031%=      5-min Rain = 0
KTAS 140048Z 17005KT 29/10 A2981 RMK A01 T02880099  RH  031%=      5-min Rain = 0
KTAS 140049Z 17004KT 29/10 A2981 RMK A01 T02880096  RH  030%=      5-min Rain = 0
KTAS 140050Z 16004KT 29/10 A2981 RMK A01 T02870097  RH  031%=      5-min Rain = 0
KTAS 140051Z 16005KT 29/10 A2981 RMK A01 T02860101  RH  032%=      5-min Rain = 0
KTAS 140052Z 16005KT 29/10 A2981 RMK A01 T02850101  RH  032%=      5-min Rain = 0
KTAS 140053Z 15004KT 28/10 A2981 RMK A01 T02840101  RH  032%=      5-min Rain = 0
KTAS 140054Z 15004KT 28/10 A2981 RMK A01 T02830104  RH  033%=      5-min Rain = 0
KTAS 140055Z 16005KT 28/10 A2982 RMK A01 T02810104  RH  033%=      5-min Rain = 0
KTAS 140056Z 16005KT 28/10 A2982 RMK A01 T02800103  RH  033%=      5-min Rain = 0
KTAS 140057Z 16005KT 28/10 A2982 RMK A01 T02790102  RH  033%=      5-min Rain = 0
KTAS 140058Z 16005KT 28/10 A2982 RMK A01 T02770102  RH  033%=      5-min Rain = 0
KTAS 140059Z 16005KT 28/10 A2981 RMK A01 T02760100  RH  033%=      5-min Rain = 0
KTAS 140100Z 16005KT 28/10 A2982 RMK A01 T02760099  RH  033%=      5-min Rain = 0
KTAS 140101Z 16005KT 28/10 A2981 RMK A01 T02760099  RH  033%=      5-min Rain = 0
KTAS 140102Z 16005KT 28/10 A2981 RMK A01 T02760099  RH  033%=      5-min Rain = 0
KTAS 140103Z 16005KT 28/10 A2982 RMK A01 T02770098  RH  032%=      5-min Rain = 0
KTAS 140104Z 16005KT 28/10 A2982 RMK A01 T02780097  RH  032%=      5-min Rain = 0
KTAS 140105Z 16005KT 28/10 A2982 RMK A01 T02790095  RH  032%=      5-min Rain = 0
KTAS 140106Z 16005KT 28/10 A2982 RMK A01 T02790096  RH  032%=      5-min Rain = 0
KTAS 140107Z 16005KT 28/10 A2982 RMK A01 T02780095  RH  032%=      5-min Rain = 0
KTAS 140108Z 17005KT 28/10 A2982 RMK A01 T02780095  RH  032%=      5-min Rain = 0
KTAS 140109Z 17004KT 28/10 A2982 RMK A01 T02780097  RH  032%=      5-min Rain = 0
KTAS 140110Z 17004KT 28/10 A2982 RMK A01 T02770101  RH  033%=      5-min Rain = 0
KTAS 140111Z 16004KT 28/10 A2982 RMK A01 T02760104  RH  034%=      5-min Rain = 0
KTAS 140112Z 16004KT 28/10 A2982 RMK A01 T02750100  RH  033%=      5-min Rain = 0
KTAS 140113Z 15004KT 28/10 A2982 RMK A01 T02750098  RH  033%=      5-min Rain = 0
KTAS 140114Z 15004KT 27/10 A2982 RMK A01 T02740098  RH  033%=      5-min Rain = 0
KTAS 140115Z 15004KT 27/10 A2982 RMK A01 T02730098  RH  033%=      5-min Rain = 0
KTAS 140116Z 14004KT 27/10 A2982 RMK A01 T02720099  RH  034%=      5-min Rain = 0
KTAS 140117Z 14004KT 27/10 A2982 RMK A01 T02710099  RH  034%=      5-min Rain = 0
KTAS 140118Z 13004KT 27/10 A2982 RMK A01 T02700104  RH  035%=      5-min Rain = 0
KTAS 140119Z 13004KT 27/11 A2982 RMK A01 T02700105  RH  035%=      5-min Rain = 0
KTAS 140120Z 13004KT 27/11 A2982 RMK A01 T02700107  RH  036%=      5-min Rain = 0
KTAS 140121Z 13004KT 27/11 A2982 RMK A01 T02710112  RH  037%=      5-min Rain = 0
KTAS 140122Z 11004KT 27/12 A2982 RMK A01 T02700116  RH  038%=      5-min Rain = 0
KTAS 140123Z 10005KT 27/12 A2982 RMK A01 T02680118  RH  039%=      5-min Rain = 0
KTAS 140124Z 11004KT 27/11 A2982 RMK A01 T02660112  RH  038%=      5-min Rain = 0
KTAS 140125Z 11005KT 26/11 A2982 RMK A01 T02640110  RH  038%=      5-min Rain = 0
KTAS 140126Z 11005KT 26/11 A2982 RMK A01 T02630108  RH  038%=      5-min Rain = 0
KTAS 140127Z 11005KT 26/11 A2982 RMK A01 T02630106  RH  037%=      5-min Rain = 0
KTAS 140128Z 11005KT 26/11 A2982 RMK A01 T02620105  RH  037%=      5-min Rain = 0
KTAS 140129Z 11006KT 26/10 A2982 RMK A01 T02620104  RH  037%=      5-min Rain = 0
KTAS 140130Z 11006KT 26/10 A2982 RMK A01 T02610104  RH  037%=      5-min Rain = 0
KTAS 140131Z 11006KT 26/10 A2982 RMK A01 T02600104  RH  037%=      5-min Rain = 0
KTAS 140132Z 11006KT 26/10 A2982 RMK A01 T02590104  RH  038%=      5-min Rain = 0
KTAS 140133Z 11006KT 26/10 A2982 RMK A01 T02570104  RH  038%=      5-min Rain = 0
KTAS 140134Z 11006KT 26/10 A2982 RMK A01 T02560104  RH  038%=      5-min Rain = 0
KTAS 140135Z 11006KT 26/10 A2982 RMK A01 T02550104  RH  039%=      5-min Rain = 0
KTAS 140136Z 11007KT 25/11 A2982 RMK A01 T02540105  RH  039%=      5-min Rain = 0
KTAS 140137Z 11007KT 25/10 A2983 RMK A01 T02540104  RH  039%=      5-min Rain = 0
KTAS 140138Z 12007KT 25/10 A2983 RMK A01 T02530103  RH  039%=      5-min Rain = 0
KTAS 140139Z 11007KT 25/10 A2983 RMK A01 T02530102  RH  039%=      5-min Rain = 0
KTAS 140140Z 11008KT 25/10 A2983 RMK A01 T02540101  RH  038%=      5-min Rain = 0
KTAS 140141Z 12008KT 26/10 A2983 RMK A01 T02550100  RH  038%=      5-min Rain = 0
KTAS 140142Z 11007KT 26/10 A2983 RMK A01 T02560099  RH  037%=      5-min Rain = 0
KTAS 140143Z 11006KT 26/10 A2983 RMK A01 T02550099  RH  037%=      5-min Rain = 0
KTAS 140144Z 12007KT 25/10 A2983 RMK A01 T02540099  RH  038%=      5-min Rain = 0
KTAS 140145Z 12007KT 25/10 A2983 RMK A01 T02530098  RH  038%=      5-min Rain = 0
KTAS 140146Z 12007KT 25/10 A2983 RMK A01 T02540097  RH  037%=      5-min Rain = 0
KTAS 140147Z 12006KT 26/10 A2983 RMK A01 T02550097  RH  037%=      5-min Rain = 0
KTAS 140148Z 12007KT 26/10 A2983 RMK A01 T02550097  RH  037%=      5-min Rain = 0
KTAS 140149Z 12007KT 26/10 A2983 RMK A01 T02560097  RH  037%=      5-min Rain = 0
KTAS 140150Z 13007KT 26/10 A2983 RMK A01 T02560097  RH  037%=      5-min Rain = 0
KTAS 140151Z 13007KT 26/10 A2983 RMK A01 T02560097  RH  036%=      5-min Rain = 0
KTAS 140152Z 13008KT 26/10 A2983 RMK A01 T02560096  RH  036%=      5-min Rain = 0
KTAS 140153Z 13008KT 26/10 A2983 RMK A01 T02570096  RH  036%=      5-min Rain = 0
KTAS 140154Z 13008KT 26/10 A2983 RMK A01 T02570095  RH  036%=      5-min Rain = 0
KTAS 140155Z 13008KT 26/10 A2983 RMK A01 T02570095  RH  036%=      5-min Rain = 0
KTAS 140156Z 13008KT 26/10 A2983 RMK A01 T02560095  RH  036%=      5-min Rain = 0
KTAS 140157Z 13008KT 26/10 A2983 RMK A01 T02550095  RH  036%=      5-min Rain = 0
KTAS 140158Z 13008KT 25/10 A2983 RMK A01 T02540095  RH  036%=      5-min Rain = 0
KTAS 140159Z 13008KT 25/09 A2983 RMK A01 T02540094  RH  036%=      5-min Rain = 0
KTAS 140200Z 13008KT 25/09 A2983 RMK A01 T02540093  RH  036%=      5-min Rain = 0
KTAS 140201Z 12008KT 26/09 A2983 RMK A01 T02550093  RH  036%=      5-min Rain = 0
KTAS 140202Z 12008KT 26/09 A2983 RMK A01 T02560092  RH  036%=      5-min Rain = 0
KTAS 140203Z 12008KT 26/09 A2983 RMK A01 T02560092  RH  036%=      5-min Rain = 0
KTAS 140204Z 12008KT 26/09 A2983 RMK A01 T02560091  RH  035%=      5-min Rain = 0
KTAS 140205Z 12008KT 26/09 A2983 RMK A01 T02560091  RH  035%=      5-min Rain = 0
KTAS 140206Z 12008KT 26/09 A2983 RMK A01 T02560091  RH  035%=      5-min Rain = 0
KTAS 140207Z 13008KT 26/09 A2984 RMK A01 T02560090  RH  035%=      5-min Rain = 0
KTAS 140208Z 13008KT 26/09 A2984 RMK A01 T02560090  RH  035%=      5-min Rain = 0
KTAS 140209Z 13008KT 26/09 A2984 RMK A01 T02560090  RH  035%=      5-min Rain = 0
KTAS 140210Z 13008KT 26/09 A2984 RMK A01 T02560090  RH  035%=      5-min Rain = 0
KTAS 140211Z 13009KT 26/09 A2984 RMK A01 T02550090  RH  035%=      5-min Rain = 0
KTAS 140212Z 13008KT 26/09 A2984 RMK A01 T02560089  RH  035%=      5-min Rain = 0
KTAS 140213Z 13008KT 26/09 A2984 RMK A01 T02560089  RH  035%=      5-min Rain = 0
KTAS 140214Z 12007KT 26/09 A2984 RMK A01 T02560089  RH  035%=      5-min Rain = 0
KTAS 140215Z 13007KT 26/09 A2984 RMK A01 T02550089  RH  035%=      5-min Rain = 0
KTAS 140216Z 13007KT 26/09 A2984 RMK A01 T02550089  RH  035%=      5-min Rain = 0
KTAS 140217Z 13007KT 26/09 A2984 RMK A01 T02550089  RH  035%=      5-min Rain = 0
KTAS 140218Z 13008KT 25/09 A2984 RMK A01 T02540088  RH  035%=      5-min Rain = 0
KTAS 140219Z 13007KT 25/09 A2984 RMK A01 T02540089  RH  035%=      5-min Rain = 0
KTAS 140220Z 13007KT 25/09 A2984 RMK A01 T02540088  RH  035%=      5-min Rain = 0
KTAS 140221Z 12007KT 25/09 A2984 RMK A01 T02540088  RH  035%=      5-min Rain = 0
KTAS 140222Z 12007KT 25/09 A2984 RMK A01 T02540089  RH  035%=      5-min Rain = 0
KTAS 140223Z 10007KT 25/09 A2984 RMK A01 T02530089  RH  035%=      5-min Rain = 0
KTAS 140224Z 11007KT 25/09 A2984 RMK A01 T02500090  RH  036%=      5-min Rain = 0
KTAS 140225Z 12007KT 25/09 A2984 RMK A01 T02500089  RH  036%=      5-min Rain = 0
KTAS 140226Z 12007KT 25/09 A2984 RMK A01 T02500089  RH  036%=      5-min Rain = 0
KTAS 140227Z 12008KT 25/09 A2984 RMK A01 T02500088  RH  036%=      5-min Rain = 0
KTAS 140228Z 12008KT 25/09 A2984 RMK A01 T02510088  RH  035%=      5-min Rain = 0
KTAS 140229Z 12007KT 25/09 A2984 RMK A01 T02530088  RH  035%=      5-min Rain = 0
KTAS 140230Z 12006KT 25/09 A2984 RMK A01 T02530088  RH  035%=      5-min Rain = 0
KTAS 140231Z 12007KT 25/09 A2984 RMK A01 T02520088  RH  035%=      5-min Rain = 0
KTAS 140232Z 11006KT 25/09 A2984 RMK A01 T02510089  RH  036%=      5-min Rain = 0
KTAS 140233Z 11005KT 25/09 A2985 RMK A01 T02490089  RH  036%=      5-min Rain = 0
KTAS 140234Z 12006KT 25/09 A2985 RMK A01 T02470089  RH  037%=      5-min Rain = 0
KTAS 140235Z 12007KT 25/09 A2985 RMK A01 T02450089  RH  037%=      5-min Rain = 0
KTAS 140236Z 12007KT 25/09 A2985 RMK A01 T02450089  RH  037%=      5-min Rain = 0
KTAS 140237Z 12007KT 25/09 A2985 RMK A01 T02450089  RH  037%=      5-min Rain = 0
KTAS 140238Z 12007KT 24/09 A2985 RMK A01 T02440088  RH  037%=      5-min Rain = 0
KTAS 140239Z 12007KT 24/09 A2985 RMK A01 T02440089  RH  037%=      5-min Rain = 0
KTAS 140240Z 12007KT 24/09 A2985 RMK A01 T02430089  RH  037%=      5-min Rain = 0
KTAS 140241Z 13007KT 24/09 A2985 RMK A01 T02430088  RH  037%=      5-min Rain = 0
KTAS 140242Z 13007KT 24/09 A2985 RMK A01 T02430089  RH  037%=      5-min Rain = 0
KTAS 140243Z 12007KT 24/09 A2985 RMK A01 T02420088  RH  038%=      5-min Rain = 0
KTAS 140244Z 12007KT 24/09 A2985 RMK A01 T02420089  RH  038%=      5-min Rain = 0
KTAS 140245Z 12007KT 24/09 A2985 RMK A01 T02410089  RH  038%=      5-min Rain = 0
KTAS 140246Z 12007KT 24/09 A2985 RMK A01 T02410089  RH  038%=      5-min Rain = 0
KTAS 140247Z 13007KT 24/09 A2985 RMK A01 T02400089  RH  038%=      5-min Rain = 0
KTAS 140248Z 12007KT 24/09 A2985 RMK A01 T02390089  RH  038%=      5-min Rain = 0
KTAS 140249Z 13007KT 24/09 A2985 RMK A01 T02390088  RH  038%=      5-min Rain = 0
KTAS 140250Z 13007KT 24/09 A2985 RMK A01 T02390088  RH  038%=      5-min Rain = 0
KTAS 140251Z 13007KT 24/09 A2985 RMK A01 T02380088  RH  038%=      5-min Rain = 0
KTAS 140252Z 13007KT 24/09 A2985 RMK A01 T02390088  RH  038%=      5-min Rain = 0
KTAS 140253Z 13007KT 24/09 A2985 RMK A01 T02390088  RH  038%=      5-min Rain = 0
KTAS 140254Z 13007KT 24/09 A2985 RMK A01 T02380088  RH  038%=      5-min Rain = 0
KTAS 140255Z 13007KT 24/09 A2985 RMK A01 T02380088  RH  039%=      5-min Rain = 0
KTAS 140256Z 13007KT 24/09 A2985 RMK A01 T02370088  RH  039%=      5-min Rain = 0
KTAS 140257Z 13007KT 24/09 A2985 RMK A01 T02370088  RH  039%=      5-min Rain = 0
KTAS 140258Z 13007KT 24/09 A2985 RMK A01 T02370088  RH  039%=      5-min Rain = 0
KTAS 140259Z 13007KT 24/09 A2985 RMK A01 T02370088  RH  039%=      5-min Rain = 0
KTAS 140300Z 13007KT 24/09 A2985 RMK A01 T02370087  RH  039%=      5-min Rain = 0
KTAS 140301Z 13006KT 24/09 A2985 RMK A01 T02360087  RH  039%=      5-min Rain = 0
KTAS 140302Z 13006KT 24/09 A2985 RMK A01 T02360087  RH  039%=      5-min Rain = 0
KTAS 140303Z 13007KT 24/09 A2985 RMK A01 T02360087  RH  039%=      5-min Rain = 0
KTAS 140304Z 12006KT 24/09 A2985 RMK A01 T02360087  RH  039%=      5-min Rain = 0
KTAS 140305Z 12007KT 24/09 A2985 RMK A01 T02360087  RH  039%=      5-min Rain = 0
KTAS 140306Z 12006KT 24/09 A2985 RMK A01 T02360087  RH  039%=      5-min Rain = 0
KTAS 140307Z 12006KT 24/09 A2985 RMK A01 T02360087  RH  038%=      5-min Rain = 0
KTAS 140308Z 12006KT 24/09 A2985 RMK A01 T02360087  RH  038%=      5-min Rain = 0
KTAS 140309Z 12006KT 24/09 A2985 RMK A01 T02360087  RH  039%=      5-min Rain = 0
KTAS 140310Z 12006KT 24/09 A2985 RMK A01 T02350087  RH  039%=      5-min Rain = 0
KTAS 140311Z 12006KT 24/09 A2985 RMK A01 T02350087  RH  039%=      5-min Rain = 0
KTAS 140312Z 12006KT 23/09 A2985 RMK A01 T02340087  RH  039%=      5-min Rain = 0
KTAS 140313Z 12006KT 23/09 A2985 RMK A01 T02330087  RH  039%=      5-min Rain = 0
KTAS 140314Z 12007KT 23/09 A2985 RMK A01 T02330087  RH  039%=      5-min Rain = 0
KTAS 140315Z 12006KT 23/09 A2985 RMK A01 T02320088  RH  040%=      5-min Rain = 0
KTAS 140316Z 11006KT 23/09 A2985 RMK A01 T02310088  RH  040%=      5-min Rain = 0
KTAS 140317Z 11007KT 23/09 A2985 RMK A01 T02310088  RH  040%=      5-min Rain = 0
KTAS 140318Z 11007KT 23/09 A2985 RMK A01 T02300088  RH  040%=      5-min Rain = 0
KTAS 140319Z 11006KT 23/09 A2985 RMK A01 T02300088  RH  040%=      5-min Rain = 0
KTAS 140320Z 11006KT 23/09 A2985 RMK A01 T02290088  RH  040%=      5-min Rain = 0
KTAS 140321Z 11007KT 23/09 A2985 RMK A01 T02290088  RH  041%=      5-min Rain = 0
KTAS 140322Z 11007KT 23/09 A2985 RMK A01 T02280088  RH  041%=      5-min Rain = 0
KTAS 140323Z 11007KT 23/09 A2986 RMK A01 T02280088  RH  041%=      5-min Rain = 0
KTAS 140324Z 11007KT 23/09 A2986 RMK A01 T02280088  RH  041%=      5-min Rain = 0
KTAS 140325Z 11007KT 23/09 A2986 RMK A01 T02270088  RH  041%=      5-min Rain = 0
KTAS 140326Z 11006KT 23/09 A2986 RMK A01 T02270089  RH  041%=      5-min Rain = 0
KTAS 140327Z 11006KT 23/09 A2986 RMK A01 T02260089  RH  041%=      5-min Rain = 0
KTAS 140328Z 11006KT 23/09 A2986 RMK A01 T02260089  RH  042%=      5-min Rain = 0
KTAS 140329Z 11006KT 23/09 A2986 RMK A01 T02260089  RH  042%=      5-min Rain = 0
KTAS 140330Z 11006KT 23/09 A2986 RMK A01 T02250088  RH  042%=      5-min Rain = 0
KTAS 140331Z 11007KT 23/09 A2986 RMK A01 T02250088  RH  042%=      5-min Rain = 0
KTAS 140332Z 11006KT 23/09 A2986 RMK A01 T02250087  RH  041%=      5-min Rain = 0
KTAS 140333Z 11006KT 22/09 A2986 RMK A01 T02240087  RH  041%=      5-min Rain = 0
KTAS 140334Z 11006KT 22/09 A2986 RMK A01 T02240087  RH  041%=      5-min Rain = 0
KTAS 140335Z 11006KT 22/09 A2986 RMK A01 T02240086  RH  041%=      5-min Rain = 0
KTAS 140336Z 11006KT 22/09 A2986 RMK A01 T02240086  RH  041%=      5-min Rain = 0
KTAS 140337Z 11006KT 22/09 A2986 RMK A01 T02240086  RH  041%=      5-min Rain = 0
KTAS 140338Z 11006KT 22/09 A2986 RMK A01 T02230086  RH  042%=      5-min Rain = 0
KTAS 140339Z 11006KT 22/09 A2986 RMK A01 T02220086  RH  042%=      5-min Rain = 0
KTAS 140340Z 10006KT 22/09 A2986 RMK A01 T02220086  RH  042%=      5-min Rain = 0
KTAS 140341Z 10006KT 22/09 A2986 RMK A01 T02220087  RH  042%=      5-min Rain = 0
KTAS 140342Z 10006KT 22/09 A2986 RMK A01 T02220087  RH  042%=      5-min Rain = 0
KTAS 140343Z 08006KT 22/09 A2986 RMK A01 T02210088  RH  043%=      5-min Rain = 0
KTAS 140344Z 08006KT 22/09 A2986 RMK A01 T02190089  RH  043%=      5-min Rain = 0
KTAS 140345Z 07007KT 22/09 A2986 RMK A01 T02170091  RH  044%=      5-min Rain = 0
KTAS 140346Z 07006KT 22/09 A2986 RMK A01 T02160091  RH  045%=      5-min Rain = 0
KTAS 140347Z 08006KT 22/09 A2986 RMK A01 T02150091  RH  045%=      5-min Rain = 0
KTAS 140348Z 08006KT 21/09 A2986 RMK A01 T02140091  RH  045%=      5-min Rain = 0
KTAS 140349Z 09006KT 21/09 A2986 RMK A01 T02140091  RH  045%=      5-min Rain = 0
KTAS 140350Z 09006KT 21/09 A2986 RMK A01 T02140091  RH  045%=      5-min Rain = 0
KTAS 140351Z 09006KT 21/09 A2986 RMK A01 T02130091  RH  046%=      5-min Rain = 0
KTAS 140352Z 09006KT 21/09 A2986 RMK A01 T02130091  RH  046%=      5-min Rain = 0
KTAS 140353Z 09006KT 21/09 A2986 RMK A01 T02130091  RH  046%=      5-min Rain = 0
KTAS 140354Z 09006KT 21/09 A2986 RMK A01 T02120091  RH  046%=      5-min Rain = 0
KTAS 140355Z 09006KT 21/09 A2986 RMK A01 T02120091  RH  046%=      5-min Rain = 0
KTAS 140356Z 09006KT 21/09 A2986 RMK A01 T02110091  RH  046%=      5-min Rain = 0
KTAS 140357Z 10006KT 21/09 A2986 RMK A01 T02110091  RH  046%=      5-min Rain = 0
KTAS 140358Z 10006KT 21/09 A2986 RMK A01 T02110091  RH  046%=      5-min Rain = 0
KTAS 140359Z 09006KT 21/09 A2986 RMK A01 T02110091  RH  046%=      5-min Rain = 0
KTAS 140400Z 10006KT 21/09 A2986 RMK A01 T02110091  RH  046%=      5-min Rain = 0
KTAS 140401Z 10006KT 21/09 A2987 RMK A01 T02110091  RH  046%=      5-min Rain = 0
KTAS 140402Z 10006KT 21/09 A2987 RMK A01 T02110091  RH  046%=      5-min Rain = 0
KTAS 140403Z 10006KT 21/09 A2987 RMK A01 T02110091  RH  046%=      5-min Rain = 0
KTAS 140404Z 09006KT 21/09 A2986 RMK A01 T02110091  RH  046%=      5-min Rain = 0
KTAS 140405Z 09006KT 21/09 A2986 RMK A01 T02110091  RH  046%=      5-min Rain = 0
KTAS 140406Z 09006KT 21/09 A2986 RMK A01 T02110091  RH  046%=      5-min Rain = 0
KTAS 140407Z 09007KT 21/09 A2986 RMK A01 T02110091  RH  046%=      5-min Rain = 0
KTAS 140408Z 09006KT 21/09 A2986 RMK A01 T02110091  RH  046%=      5-min Rain = 0
KTAS 140409Z 10007KT 21/09 A2986 RMK A01 T02110091  RH  046%=      5-min Rain = 0
KTAS 140410Z 10006KT 21/09 A2986 RMK A01 T02110090  RH  046%=      5-min Rain = 0
KTAS 140411Z 10007KT 21/09 A2986 RMK A01 T02120091  RH  046%=      5-min Rain = 0
KTAS 140412Z 10007KT 21/09 A2986 RMK A01 T02120090  RH  046%=      5-min Rain = 0
KTAS 140413Z 10007KT 21/09 A2986 RMK A01 T02110090  RH  046%=      5-min Rain = 0
KTAS 140414Z 10007KT 21/09 A2986 RMK A01 T02110090  RH  046%=      5-min Rain = 0
KTAS 140415Z 10007KT 21/09 A2986 RMK A01 T02110090  RH  046%=      5-min Rain = 0
KTAS 140416Z 10007KT 21/09 A2986 RMK A01 T02110090  RH  046%=      5-min Rain = 0
KTAS 140417Z 10007KT 21/09 A2986 RMK A01 T02120090  RH  046%=      5-min Rain = 0
KTAS 140418Z 10007KT 21/09 A2986 RMK A01 T02120090  RH  046%=      5-min Rain = 0
KTAS 140419Z 10007KT 21/09 A2986 RMK A01 T02120090  RH  046%=      5-min Rain = 0
KTAS 140420Z 11007KT 21/09 A2986 RMK A01 T02120090  RH  046%=      5-min Rain = 0
KTAS 140421Z 10006KT 21/09 A2986 RMK A01 T02120090  RH  046%=      5-min Rain = 0
KTAS 140422Z 10007KT 21/09 A2986 RMK A01 T02110090  RH  046%=      5-min Rain = 0
KTAS 140423Z 10006KT 21/09 A2986 RMK A01 T02110090  RH  046%=      5-min Rain = 0
KTAS 140424Z 10006KT 21/09 A2986 RMK A01 T02110091  RH  046%=      5-min Rain = 0
KTAS 140425Z 10006KT 21/09 A2986 RMK A01 T02100091  RH  046%=      5-min Rain = 0
KTAS 140426Z 10007KT 21/09 A2986 RMK A01 T02100090  RH  046%=      5-min Rain = 0
KTAS 140427Z 10007KT 21/09 A2986 RMK A01 T02100090  RH  046%=      5-min Rain = 0
KTAS 140428Z 10007KT 21/09 A2986 RMK A01 T02100091  RH  046%=      5-min Rain = 0
KTAS 140429Z 11007KT 21/09 A2986 RMK A01 T02100090  RH  046%=      5-min Rain = 0
KTAS 140430Z 10007KT 21/09 A2986 RMK A01 T02100091  RH  046%=      5-min Rain = 0
KTAS 140431Z 10007KT 21/09 A2986 RMK A01 T02100091  RH  046%=      5-min Rain = 0
KTAS 140432Z 10007KT 21/09 A2986 RMK A01 T02100091  RH  046%=      5-min Rain = 0
KTAS 140433Z 10007KT 21/09 A2986 RMK A01 T02100091  RH  046%=      5-min Rain = 0
KTAS 140434Z 10007KT 21/09 A2986 RMK A01 T02090091  RH  046%=      5-min Rain = 0
KTAS 140435Z 10007KT 21/09 A2986 RMK A01 T02100091  RH  046%=      5-min Rain = 0
KTAS 140436Z 10007KT 21/09 A2986 RMK A01 T02100091  RH  046%=      5-min Rain = 0
KTAS 140437Z 10007KT 21/09 A2986 RMK A01 T02100091  RH  046%=      5-min Rain = 0
KTAS 140438Z 10007KT 21/09 A2986 RMK A01 T02100091  RH  047%=      5-min Rain = 0
KTAS 140439Z 10007KT 21/09 A2986 RMK A01 T02100091  RH  047%=      5-min Rain = 0
KTAS 140440Z 10007KT 21/09 A2986 RMK A01 T02100091  RH  047%=      5-min Rain = 0
KTAS 140441Z 10007KT 21/09 A2986 RMK A01 T02100091  RH  047%=      5-min Rain = 0
KTAS 140442Z 11007KT 21/09 A2986 RMK A01 T02090091  RH  047%=      5-min Rain = 0
KTAS 140443Z 11007KT 21/09 A2986 RMK A01 T02090091  RH  047%=      5-min Rain = 0
KTAS 140444Z 11007KT 21/09 A2986 RMK A01 T02080091  RH  047%=      5-min Rain = 0
KTAS 140445Z 11007KT 21/09 A2986 RMK A01 T02080091  RH  047%=      5-min Rain = 0
KTAS 140446Z 11007KT 21/09 A2986 RMK A01 T02080091  RH  047%=      5-min Rain = 0
KTAS 140447Z 11007KT 21/09 A2986 RMK A01 T02080091  RH  047%=      5-min Rain = 0
KTAS 140448Z 11007KT 21/09 A2986 RMK A01 T02080091  RH  047%=      5-min Rain = 0
KTAS 140449Z 11007KT 21/09 A2986 RMK A01 T02080091  RH  047%=      5-min Rain = 0
KTAS 140450Z 11007KT 21/09 A2986 RMK A01 T02090091  RH  047%=      5-min Rain = 0
KTAS 140451Z 11007KT 21/09 A2986 RMK A01 T02090091  RH  047%=      5-min Rain = 0
KTAS 140452Z 11006KT 21/09 A2986 RMK A01 T02090091  RH  047%=      5-min Rain = 0
KTAS 140453Z 10006KT 21/09 A2986 RMK A01 T02090091  RH  047%=      5-min Rain = 0
KTAS 140454Z 10005KT 21/09 A2986 RMK A01 T02090091  RH  047%=      5-min Rain = 0
KTAS 140455Z 09005KT 21/09 A2986 RMK A01 T02080091  RH  047%=      5-min Rain = 0
KTAS 140456Z 09006KT 21/09 A2986 RMK A01 T02080091  RH  047%=      5-min Rain = 0
KTAS 140457Z 10006KT 21/09 A2986 RMK A01 T02070091  RH  047%=      5-min Rain = 0
KTAS 140458Z 10006KT 21/09 A2986 RMK A01 T02060091  RH  048%=      5-min Rain = 0
KTAS 140459Z 10006KT 21/09 A2986 RMK A01 T02060091  RH  048%=      5-min Rain = 0

Page generated in 0.18 seconds.